Wetterdaten: Donnerstag, 22.11.2018
Datum Zeit Temp. Aussen Temp. o. S. +5cm Feuchte Auss Luftdruck Regen Sonnenschein Regendauer Solar Windben Empfang
22.11.2018 00:00 3,6 C 3,3 C 2,8 C 85 % 1017,2 hPa 0,0 l/m 0 min 0 min 0 W/m 6,4 km/h (2 Bft) 93,62 %
22.11.2018 00:02 3,6 C 3,3 C 2,8 C 85 % 1017,3 hPa 0,0 l/m 0 min 0 min 0 W/m 9,7 km/h (2 Bft) 95,24 %
22.11.2018 00:04 3,6 C 3,3 C 2,8 C 84 % 1017,2 hPa 0,0 l/m 0 min 0 min 0 W/m 6,4 km/h (2 Bft) 95,74 %
22.11.2018 00:08 3,6 C 3,3 C 2,8 C 84 % 1017,2 hPa 0,0 l/m 0 min 0 min 0 W/m 19,3 km/h (3 Bft) 95,74 %
22.11.2018 00:10 3,6 C 3,3 C 2,8 C 84 % 1017,2 hPa 0,0 l/m 0 min 0 min 0 W/m 19,3 km/h (3 Bft) 95,65 %
22.11.2018 00:12 3,6 C 3,3 C 2,8 C 84 % 1017,2 hPa 0,0 l/m 0 min 0 min 0 W/m 9,7 km/h (2 Bft) 93,62 %
22.11.2018 00:14 3,7 C 3,3 C 2,8 C 84 % 1017,3 hPa 0,0 l/m 0 min 0 min 0 W/m 6,4 km/h (2 Bft) 95,74 %
22.11.2018 00:16 3,7 C 3,3 C 2,8 C 84 % 1017,2 hPa 0,0 l/m 0 min 0 min 0 W/m 12,9 km/h (3 Bft) 95,74 %
22.11.2018 00:18 3,7 C 3,3 C 2,8 C 84 % 1017,2 hPa 0,0 l/m 0 min 0 min 0 W/m 16,1 km/h (3 Bft) 95,74 %
22.11.2018 00:20 3,7 C 3,3 C 2,8 C 84 % 1017,2 hPa 0,0 l/m 0 min 0 min 0 W/m 9,7 km/h (2 Bft) 97,87 %
22.11.2018 00:22 3,7 C 3,3 C 2,8 C 84 % 1017,3 hPa 0,0 l/m 0 min 0 min 0 W/m 6,4 km/h (2 Bft) 97,83 %
22.11.2018 00:24 3,7 C 3,3 C 2,8 C 84 % 1017,2 hPa 0,0 l/m 0 min 0 min 0 W/m 9,7 km/h (2 Bft) 95,74 %
22.11.2018 00:26 3,7 C 3,3 C 2,8 C 84 % 1017,3 hPa 0,0 l/m 0 min 0 min 0 W/m 9,7 km/h (2 Bft) 97,87 %
22.11.2018 00:28 3,8 C 3,3 C 2,8 C 84 % 1017,2 hPa 0,0 l/m 0 min 0 min 0 W/m 9,7 km/h (2 Bft) 95,74 %
22.11.2018 00:30 3,8 C 3,3 C 2,8 C 83 % 1017,3 hPa 0,0 l/m 0 min 0 min 0 W/m 9,7 km/h (2 Bft) 97,87 %
22.11.2018 00:32 3,8 C 3,3 C 2,8 C 83 % 1017,3 hPa 0,0 l/m 0 min 0 min 0 W/m 9,7 km/h (2 Bft) 95,74 %
22.11.2018 00:34 3,8 C 3,3 C 2,8 C 83 % 1017,3 hPa 0,0 l/m 0 min 0 min 0 W/m 9,7 km/h (2 Bft) 97,83 %
22.11.2018 00:36 3,8 C 3,3 C 2,8 C 83 % 1017,2 hPa 0,0 l/m 0 min 0 min 0 W/m 6,4 km/h (2 Bft) 97,87 %
22.11.2018 00:38 3,8 C 3,3 C 2,8 C 83 % 1017,2 hPa 0,0 l/m 0 min 0 min 0 W/m 6,4 km/h (2 Bft) 95,74 %
22.11.2018 00:40 3,8 C 3,3 C 2,8 C 83 % 1017,2 hPa 0,0 l/m 0 min 0 min 0 W/m 9,7 km/h (2 Bft) 97,87 %
22.11.2018 00:42 3,8 C 3,3 C 2,8 C 83 % 1017,3 hPa 0,0 l/m 0 min 0 min 0 W/m 9,7 km/h (2 Bft) 95,74 %
22.11.2018 00:44 3,8 C 3,3 C 2,8 C 83 % 1017,3 hPa 0,0 l/m 0 min 0 min 0 W/m 9,7 km/h (2 Bft) 97,83 %
22.11.2018 00:46 3,8 C 3,3 C 2,8 C 83 % 1017,3 hPa 0,0 l/m 0 min 0 min 0 W/m 9,7 km/h (2 Bft) 97,92 %
22.11.2018 00:48 3,8 C 3,3 C 2,8 C 83 % 1017,3 hPa 0,0 l/m 0 min 0 min 0 W/m 16,1 km/h (3 Bft) 97,87 %
22.11.2018 00:50 3,8 C 3,3 C 2,8 C 83 % 1017,3 hPa 0,0 l/m 0 min 0 min 0 W/m 6,4 km/h (2 Bft) 97,87 %
22.11.2018 00:52 3,8 C 3,3 C 2,8 C 83 % 1017,3 hPa 0,0 l/m 0 min 0 min 0 W/m 9,7 km/h (2 Bft) 95,74 %
22.11.2018 00:54 3,8 C 3,3 C 2,8 C 83 % 1017,3 hPa 0,0 l/m 0 min 0 min 0 W/m 9,7 km/h (2 Bft) 97,87 %
22.11.2018 00:56 3,9 C 3,3 C 2,8 C 83 % 1017,3 hPa 0,0 l/m 0 min 0 min 0 W/m 9,7 km/h (2 Bft) 97,83 %
22.11.2018 00:58 3,9 C 3,3 C 2,8 C 83 % 1017,2 hPa 0,0 l/m 0 min 0 min 0 W/m 9,7 km/h (2 Bft) 97,87 %
22.11.2018 01:00 3,9 C 3,3 C 2,8 C 83 % 1017,2 hPa 0,0 l/m 0 min 0 min 0 W/m 12,9 km/h (3 Bft) 95,74 %
22.11.2018 01:02 3,9 C 3,3 C 2,8 C 83 % 1017,3 hPa 0,0 l/m 0 min 0 min 0 W/m 9,7 km/h (2 Bft) 97,87 %
22.11.2018 01:04 3,9 C 3,3 C 2,8 C 83 % 1017,2 hPa 0,0 l/m 0 min 0 min 0 W/m 12,9 km/h (3 Bft) 97,87 %
22.11.2018 01:06 3,9 C 3,3 C 2,8 C 83 % 1017,3 hPa 0,0 l/m 0 min 0 min 0 W/m 9,7 km/h (2 Bft) 97,87 %
22.11.2018 01:08 3,9 C 3,3 C 2,8 C 83 % 1017,3 hPa 0,0 l/m 0 min 0 min 0 W/m 6,4 km/h (2 Bft) 97,83 %
22.11.2018 01:10 3,9 C 3,3 C 2,8 C 83 % 1017,3 hPa 0,0 l/m 0 min 0 min 0 W/m 6,4 km/h (2 Bft) 97,87 %
22.11.2018 01:12 3,9 C 3,3 C 2,8 C 83 % 1017,3 hPa 0,0 l/m 0 min 0 min 0 W/m 9,7 km/h (2 Bft) 97,87 %
22.11.2018 01:14 3,9 C 3,3 C 2,8 C 83 % 1017,3 hPa 0,0 l/m 0 min 0 min 0 W/m 16,1 km/h (3 Bft) 95,74 %
22.11.2018 01:16 3,9 C 3,3 C 2,8 C 83 % 1017,3 hPa 0,0 l/m 0 min 0 min 0 W/m 12,9 km/h (3 Bft) 95,74 %
22.11.2018 01:18 3,9 C 3,3 C 2,8 C 83 % 1017,2 hPa 0,0 l/m 0 min 0 min 0 W/m 6,4 km/h (2 Bft) 97,87 %
22.11.2018 01:20 3,9 C 3,3 C 2,8 C 83 % 1017,3 hPa 0,0 l/m 0 min 0 min 0 W/m 6,4 km/h (2 Bft) 97,83 %
22.11.2018 01:22 3,9 C 3,3 C 2,8 C 83 % 1017,3 hPa 0,0 l/m 0 min 0 min 0 W/m 6,4 km/h (2 Bft) 97,87 %
22.11.2018 01:24 3,9 C 3,3 C 2,8 C 83 % 1017,3 hPa 0,0 l/m 0 min 0 min 0 W/m 6,4 km/h (2 Bft) 97,87 %
22.11.2018 01:26 3,9 C 3,3 C 2,8 C 83 % 1017,2 hPa 0,0 l/m 0 min 0 min 0 W/m 6,4 km/h (2 Bft) 100,00 %
22.11.2018 01:28 3,9 C 3,3 C 2,8 C 83 % 1017,2 hPa 0,0 l/m 0 min 0 min 0 W/m 6,4 km/h (2 Bft) 97,87 %
22.11.2018 01:30 3,9 C 3,3 C 2,8 C 83 % 1017,3 hPa 0,0 l/m 0 min 0 min 0 W/m 6,4 km/h (2 Bft) 100,00 %
22.11.2018 01:32 3,9 C 3,3 C 2,8 C 83 % 1017,2 hPa 0,0 l/m 0 min 0 min 0 W/m 6,4 km/h (2 Bft) 100,00 %
22.11.2018 01:34 3,9 C 3,3 C 2,8 C 83 % 1017,2 hPa 0,0 l/m 0 min 0 min 0 W/m 3,2 km/h (1 Bft) 100,00 %
22.11.2018 01:36 3,9 C 3,3 C 2,8 C 83 % 1017,3 hPa 0,0 l/m 0 min 0 min 0 W/m 0,0 km/h (0 Bft) 95,74 %
22.11.2018 01:38 3,9 C 3,3 C 2,8 C 83 % 1017,3 hPa 0,0 l/m 0 min 0 min 0 W/m 3,2 km/h (1 Bft) 100,00 %
22.11.2018 01:40 3,9 C 3,3 C 2,8 C 83 % 1017,3 hPa 0,0 l/m 0 min 0 min 0 W/m 3,2 km/h (1 Bft) 100,00 %
22.11.2018 01:42 3,9 C 3,3 C 2,8 C 83 % 1017,4 hPa 0,0 l/m 0 min 0 min 0 W/m 3,2 km/h (1 Bft) 97,83 %
22.11.2018 01:44 3,9 C 3,3 C 2,8 C 83 % 1017,4 hPa 0,0 l/m 0 min 0 min 0 W/m 3,2 km/h (1 Bft) 100,00 %
22.11.2018 01:46 3,9 C 3,3 C 2,8 C 83 % 1017,3 hPa 0,0 l/m 0 min 0 min 0 W/m 3,2 km/h (1 Bft) 100,00 %
22.11.2018 01:48 3,9 C 3,3 C 2,8 C 83 % 1017,4 hPa 0,0 l/m 0 min 0 min 0 W/m 6,4 km/h (2 Bft) 100,00 %
22.11.2018 01:50 3,9 C 2,8 C 2,8 C 83 % 1017,4 hPa 0,0 l/m 0 min 0 min 0 W/m 3,2 km/h (1 Bft) 100,00 %
22.11.2018 01:52 3,9 C 2,8 C 2,8 C 83 % 1017,4 hPa 0,0 l/m 0 min 0 min 0 W/m 3,2 km/h (1 Bft) 95,74 %
22.11.2018 01:54 3,9 C 2,8 C 2,8 C 83 % 1017,4 hPa 0,0 l/m 0 min 0 min 0 W/m 3,2 km/h (1 Bft) 100,00 %
22.11.2018 01:56 3,9 C 2,8 C 2,8 C 84 % 1017,4 hPa 0,0 l/m 0 min 0 min 0 W/m 3,2 km/h (1 Bft) 97,87 %
22.11.2018 01:58 3,9 C 2,8 C 2,8 C 84 % 1017,4 hPa 0,0 l/m 0 min 0 min 0 W/m 3,2 km/h (1 Bft) 100,00 %
22.11.2018 02:00 3,9 C 2,8 C 2,8 C 84 % 1017,4 hPa 0,0 l/m 0 min 0 min 0 W/m 3,2 km/h (1 Bft) 100,00 %
22.11.2018 02:02 3,8 C 2,8 C 2,8 C 84 % 1017,4 hPa 0,0 l/m 0 min 0 min 0 W/m 3,2 km/h (1 Bft) 100,00 %
22.11.2018 02:04 3,8 C 2,8 C 2,8 C 84 % 1017,4 hPa 0,0 l/m 0 min 0 min 0 W/m 6,4 km/h (2 Bft) 100,00 %
22.11.2018 02:06 3,8 C 2,8 C 2,8 C 84 % 1017,4 hPa 0,0 l/m 0 min 0 min 0 W/m 3,2 km/h (1 Bft) 100,00 %
22.11.2018 02:08 3,8 C 2,8 C 2,8 C 84 % 1017,4 hPa 0,0 l/m 0 min 0 min 0 W/m 6,4 km/h (2 Bft) 100,00 %
22.11.2018 02:10 3,8 C 2,8 C 2,8 C 84 % 1017,4 hPa 0,0 l/m 0 min 0 min 0 W/m 3,2 km/h (1 Bft) 97,87 %
22.11.2018 02:12 3,7 C 2,8 C 2,8 C 84 % 1017,4 hPa 0,0 l/m 0 min 0 min 0 W/m 3,2 km/h (1 Bft) 100,00 %
22.11.2018 02:14 3,7 C 2,8 C 2,8 C 84 % 1017,3 hPa 0,0 l/m 0 min 0 min 0 W/m 6,4 km/h (2 Bft) 100,00 %
22.11.2018 02:16 3,7 C 2,8 C 2,8 C 84 % 1017,4 hPa 0,0 l/m 0 min 0 min 0 W/m 6,4 km/h (2 Bft) 100,00 %
22.11.2018 02:18 3,7 C 2,8 C 2,8 C 84 % 1017,4 hPa 0,0 l/m 0 min 0 min 0 W/m 6,4 km/h (2 Bft) 100,00 %
22.11.2018 02:20 3,7 C 2,8 C 2,8 C 84 % 1017,3 hPa 0,0 l/m 0 min 0 min 0 W/m 3,2 km/h (1 Bft) 100,00 %
22.11.2018 02:22 3,7 C 2,8 C 2,8 C 84 % 1017,3 hPa 0,0 l/m 0 min 0 min 0 W/m 3,2 km/h (1 Bft) 100,00 %
22.11.2018 02:24 3,6 C 2,8 C 2,8 C 85 % 1017,3 hPa 0,0 l/m 0 min 0 min 0 W/m 3,2 km/h (1 Bft) 100,00 %
22.11.2018 02:26 3,6 C 2,8 C 2,8 C 85 % 1017,3 hPa 0,0 l/m 0 min 0 min 0 W/m 6,4 km/h (2 Bft) 100,00 %
22.11.2018 02:28 3,6 C 2,8 C 2,8 C 85 % 1017,3 hPa 0,0 l/m 0 min 0 min 0 W/m 3,2 km/h (1 Bft) 97,87 %
22.11.2018 02:30 3,6 C 2,8 C 2,8 C 85 % 1017,3 hPa 0,0 l/m 0 min 0 min 0 W/m 6,4 km/h (2 Bft) 97,83 %
22.11.2018 02:32 3,5 C 2,8 C 2,8 C 85 % 1017,3 hPa 0,0 l/m 0 min 0 min 0 W/m 6,4 km/h (2 Bft) 100,00 %
22.11.2018 02:34 3,5 C 2,8 C 2,8 C 85 % 1017,3 hPa 0,0 l/m 0 min 0 min 0 W/m 6,4 km/h (2 Bft) 100,00 %
22.11.2018 02:36 3,5 C 2,8 C 2,8 C 85 % 1017,3 hPa 0,0 l/m 0 min 0 min 0 W/m 6,4 km/h (2 Bft) 97,87 %
22.11.2018 02:38 3,4 C 2,8 C 2,8 C 85 % 1017,3 hPa 0,0 l/m 0 min 0 min 0 W/m 6,4 km/h (2 Bft) 97,87 %
22.11.2018 02:40 3,4 C 2,8 C 2,8 C 85 % 1017,3 hPa 0,0 l/m 0 min 0 min 0 W/m 6,4 km/h (2 Bft) 97,87 %
22.11.2018 02:42 3,4 C 2,8 C 2,8 C 86 % 1017,2 hPa 0,0 l/m 0 min 0 min 0 W/m 6,4 km/h (2 Bft) 97,83 %
22.11.2018 02:44 3,4 C 2,8 C 2,8 C 86 % 1017,3 hPa 0,0 l/m 0 min 0 min 0 W/m 6,4 km/h (2 Bft) 95,74 %
22.11.2018 02:46 3,4 C 2,8 C 2,8 C 86 % 1017,2 hPa 0,0 l/m 0 min 0 min 0 W/m 6,4 km/h (2 Bft) 97,87 %
22.11.2018 02:48 3,4 C 2,8 C 2,8 C 86 % 1017,2 hPa 0,0 l/m 0 min 0 min 0 W/m 6,4 km/h (2 Bft) 97,87 %
22.11.2018 02:50 3,3 C 2,8 C 2,8 C 86 % 1017,2 hPa 0,0 l/m 0 min 0 min 0 W/m 6,4 km/h (2 Bft) 97,87 %
22.11.2018 02:52 3,3 C 2,2 C 2,8 C 86 % 1017,2 hPa 0,0 l/m 0 min 0 min 0 W/m 6,4 km/h (2 Bft) 97,83 %
22.11.2018 02:54 3,3 C 2,2 C 2,8 C 86 % 1017,2 hPa 0,0 l/m 0 min 0 min 0 W/m 6,4 km/h (2 Bft) 97,87 %
22.11.2018 02:56 3,3 C 2,2 C 2,8 C 86 % 1017,1 hPa 0,0 l/m 0 min 0 min 0 W/m 6,4 km/h (2 Bft) 95,74 %
22.11.2018 02:58 3,3 C 2,2 C 2,8 C 87 % 1017,1 hPa 0,0 l/m 0 min 0 min 0 W/m 3,2 km/h (1 Bft) 95,74 %
22.11.2018 03:00 3,3 C 2,2 C 2,8 C 87 % 1017,2 hPa 0,0 l/m 0 min 0 min 0 W/m 6,4 km/h (2 Bft) 95,74 %
22.11.2018 03:02 3,2 C 2,2 C 2,8 C 87 % 1017,2 hPa 0,0 l/m 0 min 0 min 0 W/m 6,4 km/h (2 Bft) 93,62 %
22.11.2018 03:04 3,2 C 2,2 C 2,8 C 87 % 1017,2 hPa 0,0 l/m 0 min 0 min 0 W/m 6,4 km/h (2 Bft) 95,65 %
22.11.2018 03:06 3,2 C 2,2 C 2,8 C 87 % 1017,1 hPa 0,0 l/m 0 min 0 min 0 W/m 6,4 km/h (2 Bft) 97,87 %
22.11.2018 03:08 3,2 C 2,2 C 2,8 C 87 % 1017,1 hPa 0,0 l/m 0 min 0 min 0 W/m 6,4 km/h (2 Bft) 95,74 %
22.11.2018 03:10 3,2 C 2,2 C 2,8 C 87 % 1017,1 hPa 0,0 l/m 0 min 0 min 0 W/m 6,4 km/h (2 Bft) 95,74 %
22.11.2018 03:12 3,2 C 2,2 C 2,8 C 87 % 1017,1 hPa 0,0 l/m 0 min 0 min 0 W/m 6,4 km/h (2 Bft) 95,74 %
22.11.2018 03:14 3,2 C 2,2 C 2,8 C 87 % 1017,0 hPa 0,0 l/m 0 min 0 min 0 W/m 6,4 km/h (2 Bft) 95,74 %
22.11.2018 03:16 3,2 C 2,2 C 2,8 C 87 % 1017,1 hPa 0,0 l/m 0 min 0 min 0 W/m 6,4 km/h (2 Bft) 95,65 %
22.11.2018 03:18 3,2 C 2,2 C 2,8 C 87 % 1017,1 hPa 0,0 l/m 0 min 0 min 0 W/m 6,4 km/h (2 Bft) 93,62 %
22.11.2018 03:20 3,2 C 2,2 C 2,8 C 87 % 1017,1 hPa 0,0 l/m 0 min 0 min 0 W/m 9,7 km/h (2 Bft) 93,62 %
22.11.2018 03:22 3,2 C 2,2 C 2,8 C 88 % 1017,1 hPa 0,0 l/m 0 min 0 min 0 W/m 6,4 km/h (2 Bft) 95,74 %
22.11.2018 03:24 3,1 C 2,2 C 2,2 C 88 % 1017,1 hPa 0,0 l/m 0 min 0 min 0 W/m 6,4 km/h (2 Bft) 97,87 %
22.11.2018 03:26 3,1 C 2,2 C 2,2 C 88 % 1017,1 hPa 0,0 l/m 0 min 0 min 0 W/m 9,7 km/h (2 Bft) 97,87 %
22.11.2018 03:28 3,1 C 2,2 C 2,2 C 88 % 1017,1 hPa 0,0 l/m 0 min 0 min 0 W/m 6,4 km/h (2 Bft) 95,65 %
22.11.2018 03:30 3,1 C 2,2 C 2,2 C 88 % 1017,1 hPa 0,0 l/m 0 min 0 min 0 W/m 6,4 km/h (2 Bft) 95,74 %
22.11.2018 03:32 3,1 C 2,2 C 2,2 C 88 % 1017,1 hPa 0,0 l/m 0 min 0 min 0 W/m 6,4 km/h (2 Bft) 95,74 %
22.11.2018 03:34 3,1 C 2,2 C 2,2 C 88 % 1017,1 hPa 0,0 l/m 0 min 0 min 0 W/m 6,4 km/h (2 Bft) 95,74 %
22.11.2018 03:36 3,1 C 2,8 C 2,2 C 88 % 1017,1 hPa 0,0 l/m 0 min 0 min 0 W/m 3,2 km/h (1 Bft) 93,62 %
22.11.2018 03:38 3,1 C 2,8 C 2,2 C 88 % 1017,1 hPa 0,0 l/m 0 min 0 min 0 W/m 3,2 km/h (1 Bft) 95,74 %
22.11.2018 03:40 3,1 C 2,8 C 2,2 C 88 % 1017,1 hPa 0,0 l/m 0 min 0 min 0 W/m 6,4 km/h (2 Bft) 95,65 %
22.11.2018 03:42 3,1 C 2,8 C 2,2 C 89 % 1017,1 hPa 0,0 l/m 0 min 0 min 0 W/m 6,4 km/h (2 Bft) 95,74 %
22.11.2018 03:44 3,1 C 2,8 C 2,2 C 89 % 1017,1 hPa 0,0 l/m 0 min 0 min 0 W/m 6,4 km/h (2 Bft) 95,74 %
22.11.2018 03:46 3,1 C 2,8 C 2,2 C 89 % 1017,1 hPa 0,0 l/m 0 min 0 min 0 W/m 3,2 km/h (1 Bft) 97,87 %
22.11.2018 03:48 3,1 C 2,8 C 2,2 C 89 % 1017,1 hPa 0,0 l/m 0 min 0 min 0 W/m 6,4 km/h (2 Bft) 95,74 %
22.11.2018 03:50 3,1 C 2,8 C 2,2 C 89 % 1017,1 hPa 0,0 l/m 0 min 0 min 0 W/m 6,4 km/h (2 Bft) 95,74 %
22.11.2018 03:52 3,1 C 2,8 C 2,2 C 89 % 1017,1 hPa 0,0 l/m 0 min 0 min 0 W/m 3,2 km/h (1 Bft) 93,48 %
22.11.2018 03:54 3,1 C 2,8 C 2,2 C 89 % 1017,1 hPa 0,0 l/m 0 min 0 min 0 W/m 3,2 km/h (1 Bft) 93,62 %
22.11.2018 03:56 3,1 C 2,8 C 2,2 C 89 % 1017,1 hPa 0,0 l/m 0 min 0 min 0 W/m 3,2 km/h (1 Bft) 91,49 %
22.11.2018 03:58 3,1 C 2,8 C 2,2 C 89 % 1017,1 hPa 0,0 l/m 0 min 0 min 0 W/m 3,2 km/h (1 Bft) 95,74 %
22.11.2018 04:00 3,1 C 2,8 C 2,2 C 89 % 1017,1 hPa 0,0 l/m 0 min 0 min 0 W/m 6,4 km/h (2 Bft) 93,62 %
22.11.2018 04:02 3,1 C 2,8 C 2,2 C 89 % 1017,1 hPa 0,0 l/m 0 min 0 min 0 W/m 3,2 km/h (1 Bft) 97,06 %
22.11.2018 04:04 3,1 C 2,8 C 2,2 C 89 % 1017,1 hPa 0,0 l/m 0 min 0 min 0 W/m 3,2 km/h (1 Bft) 100,00 %
22.11.2018 04:06 3,1 C 2,8 C 2,2 C 89 % 1017,1 hPa 0,0 l/m 0 min 0 min 0 W/m 3,2 km/h (1 Bft) 95,74 %
22.11.2018 04:08 3,1 C 2,8 C 2,2 C 89 % 1017,1 hPa 0,0 l/m 0 min 0 min 0 W/m 3,2 km/h (1 Bft) 95,74 %
22.11.2018 04:10 3,1 C 2,8 C 2,2 C 89 % 1017,2 hPa 0,0 l/m 0 min 0 min 0 W/m 3,2 km/h (1 Bft) 93,62 %
22.11.2018 04:12 3,1 C 2,8 C 2,2 C 89 % 1017,2 hPa 0,0 l/m 0 min 0 min 0 W/m 6,4 km/h (2 Bft) 97,87 %
22.11.2018 04:14 3,1 C 2,8 C 2,2 C 89 % 1017,2 hPa 0,0 l/m 0 min 0 min 0 W/m 3,2 km/h (1 Bft) 100,00 %
22.11.2018 04:16 3,1 C 2,8 C 2,8 C 89 % 1017,2 hPa 0,0 l/m 0 min 0 min 0 W/m 3,2 km/h (1 Bft) 97,87 %
22.11.2018 04:18 3,1 C 2,8 C 2,8 C 89 % 1017,2 hPa 0,0 l/m 0 min 0 min 0 W/m 3,2 km/h (1 Bft) 97,87 %
22.11.2018 04:20 3,1 C 2,8 C 2,8 C 89 % 1017,2 hPa 0,0 l/m 0 min 0 min 0 W/m 3,2 km/h (1 Bft) 97,87 %
22.11.2018 04:22 3,1 C 2,8 C 2,8 C 89 % 1017,1 hPa 0,0 l/m 0 min 0 min 0 W/m 6,4 km/h (2 Bft) 97,87 %
22.11.2018 04:24 3,1 C 2,8 C 2,8 C 89 % 1017,1 hPa 0,0 l/m 0 min 0 min 0 W/m 6,4 km/h (2 Bft) 100,00 %
22.11.2018 04:26 3,1 C 2,8 C 2,8 C 89 % 1017,1 hPa 0,0 l/m 0 min 0 min 0 W/m 6,4 km/h (2 Bft) 100,00 %
22.11.2018 04:28 3,1 C 2,8 C 2,8 C 89 % 1017,1 hPa 0,0 l/m 0 min 0 min 0 W/m 6,4 km/h (2 Bft) 97,87 %
22.11.2018 04:30 3,1 C 2,8 C 2,8 C 89 % 1017,0 hPa 0,0 l/m 0 min 0 min 0 W/m 3,2 km/h (1 Bft) 95,74 %
22.11.2018 04:32 3,1 C 2,8 C 2,2 C 89 % 1017,1 hPa 0,0 l/m 0 min 0 min 0 W/m 3,2 km/h (1 Bft) 100,00 %
22.11.2018 04:34 3,1 C 2,8 C 2,8 C 90 % 1017,1 hPa 0,0 l/m 0 min 0 min 0 W/m 6,4 km/h (2 Bft) 100,00 %
22.11.2018 04:36 3,1 C 2,8 C 2,8 C 90 % 1017,1 hPa 0,0 l/m 0 min 0 min 0 W/m 6,4 km/h (2 Bft) 100,00 %
22.11.2018 04:38 3,1 C 2,8 C 2,8 C 89 % 1017,1 hPa 0,0 l/m 0 min 0 min 0 W/m 6,4 km/h (2 Bft) 100,00 %
22.11.2018 04:40 3,1 C 2,8 C 2,8 C 90 % 1017,1 hPa 0,0 l/m 0 min 0 min 0 W/m 6,4 km/h (2 Bft) 100,00 %
22.11.2018 04:42 3,1 C 2,8 C 2,8 C 90 % 1017,1 hPa 0,0 l/m 0 min 0 min 0 W/m 6,4 km/h (2 Bft) 100,00 %
22.11.2018 04:44 3,1 C 2,8 C 2,8 C 90 % 1017,1 hPa 0,0 l/m 0 min 0 min 0 W/m 6,4 km/h (2 Bft) 100,00 %
22.11.2018 04:46 3,1 C 2,8 C 2,8 C 90 % 1017,1 hPa 0,0 l/m 0 min 0 min 0 W/m 6,4 km/h (2 Bft) 100,00 %
22.11.2018 04:48 3,1 C 2,8 C 2,8 C 90 % 1017,0 hPa 0,0 l/m 0 min 0 min 0 W/m 6,4 km/h (2 Bft) 100,00 %
22.11.2018 04:50 3,1 C 2,8 C 2,8 C 90 % 1017,1 hPa 0,0 l/m 0 min 0 min 0 W/m 6,4 km/h (2 Bft) 100,00 %
22.11.2018 04:52 3,1 C 2,8 C 2,8 C 90 % 1017,1 hPa 0,0 l/m 0 min 0 min 0 W/m 6,4 km/h (2 Bft) 97,87 %
22.11.2018 04:54 3,1 C 2,8 C 2,8 C 90 % 1017,1 hPa 0,0 l/m 0 min 0 min 0 W/m 6,4 km/h (2 Bft) 100,00 %
22.11.2018 04:56 3,1 C 2,8 C 2,8 C 90 % 1017,1 hPa 0,0 l/m 0 min 0 min 0 W/m 9,7 km/h (2 Bft) 100,00 %
22.11.2018 04:58 3,1 C 2,8 C 2,8 C 90 % 1017,1 hPa 0,0 l/m 0 min 0 min 0 W/m 9,7 km/h (2 Bft) 97,87 %
22.11.2018 05:00 3,1 C 2,8 C 2,8 C 90 % 1017,0 hPa 0,0 l/m 0 min 0 min 0 W/m 6,4 km/h (2 Bft) 100,00 %
22.11.2018 05:02 3,1 C 2,8 C 2,8 C 90 % 1017,0 hPa 0,0 l/m 0 min 0 min 0 W/m 6,4 km/h (2 Bft) 100,00 %
22.11.2018 05:04 3,1 C 2,8 C 2,8 C 90 % 1017,0 hPa 0,0 l/m 0 min 0 min 0 W/m 6,4 km/h (2 Bft) 100,00 %
22.11.2018 05:05 3,1 C 2,8 C 2,2 C 90 % 1017,0 hPa 0,0 l/m 0 min 0 min 0 W/m 6,4 km/h (2 Bft) 100,00 %
22.11.2018 05:10 3,1 C 2,8 C 2,2 C 90 % 1017,0 hPa 0,0 l/m 0 min 0 min 0 W/m 6,4 km/h (2 Bft) 100,00 %
22.11.2018 05:12 3,1 C 2,8 C 2,2 C 90 % 1017,0 hPa 0,0 l/m 0 min 0 min 0 W/m 3,2 km/h (1 Bft) 91,67 %
22.11.2018 05:14 3,1 C 2,8 C 2,2 C 90 % 1017,0 hPa 0,0 l/m 0 min 0 min 0 W/m 3,2 km/h (1 Bft) 95,74 %
22.11.2018 05:16 3,1 C 2,8 C 2,2 C 90 % 1017,1 hPa 0,0 l/m 0 min 0 min 0 W/m 3,2 km/h (1 Bft) 100,00 %
22.11.2018 05:18 3,1 C 2,8 C 2,2 C 90 % 1017,1 hPa 0,0 l/m 0 min 0 min 0 W/m 6,4 km/h (2 Bft) 94,34 %
22.11.2018 05:20 3,1 C 2,8 C 2,2 C 90 % 1017,0 hPa 0,0 l/m 0 min 0 min 0 W/m 6,4 km/h (2 Bft) 96,00 %
22.11.2018 05:22 3,1 C 2,8 C 2,2 C 90 % 1017,0 hPa 0,0 l/m 0 min 0 min 0 W/m 6,4 km/h (2 Bft) 97,96 %
22.11.2018 05:24 3,1 C 2,8 C 2,2 C 90 % 1017,0 hPa 0,0 l/m 0 min 0 min 0 W/m 6,4 km/h (2 Bft) 97,14 %
22.11.2018 05:26 3,1 C 2,8 C 2,2 C 90 % 1017,0 hPa 0,0 l/m 0 min 0 min 0 W/m 6,4 km/h (2 Bft) 98,11 %
22.11.2018 05:28 3,1 C 2,8 C 2,2 C 90 % 1017,0 hPa 0,0 l/m 0 min 0 min 0 W/m 6,4 km/h (2 Bft) 97,87 %
22.11.2018 05:30 3,1 C 2,8 C 2,2 C 90 % 1017,0 hPa 0,0 l/m 0 min 0 min 0 W/m 6,4 km/h (2 Bft) 98,00 %
22.11.2018 05:32 3,1 C 2,8 C 2,2 C 90 % 1017,0 hPa 0,0 l/m 0 min 0 min 0 W/m 6,4 km/h (2 Bft) 97,96 %
22.11.2018 05:34 3,1 C 2,8 C 2,2 C 90 % 1017,0 hPa 0,0 l/m 0 min 0 min 0 W/m 6,4 km/h (2 Bft) 97,14 %
22.11.2018 05:36 3,1 C 2,8 C 2,2 C 90 % 1017,0 hPa 0,0 l/m 0 min 0 min 0 W/m 6,4 km/h (2 Bft) 98,31 %
22.11.2018 05:38 3,1 C 2,8 C 2,8 C 90 % 1017,0 hPa 0,0 l/m 0 min 0 min 0 W/m 6,4 km/h (2 Bft) 97,14 %
22.11.2018 05:40 3,1 C 2,8 C 2,8 C 90 % 1017,0 hPa 0,0 l/m 0 min 0 min 0 W/m 6,4 km/h (2 Bft) 97,87 %
22.11.2018 05:42 3,1 C 2,8 C 2,8 C 90 % 1017,0 hPa 0,0 l/m 0 min 0 min 0 W/m 3,2 km/h (1 Bft) 98,11 %
22.11.2018 05:44 3,1 C 2,8 C 2,2 C 90 % 1017,0 hPa 0,0 l/m 0 min 0 min 0 W/m 3,2 km/h (1 Bft) 96,00 %
22.11.2018 05:46 3,1 C 2,8 C 2,8 C 90 % 1017,0 hPa 0,0 l/m 0 min 0 min 0 W/m 6,4 km/h (2 Bft) 97,83 %
22.11.2018 05:48 3,1 C 2,8 C 2,8 C 90 % 1017,0 hPa 0,0 l/m 0 min 0 min 0 W/m 6,4 km/h (2 Bft) 98,00 %
22.11.2018 05:50 3,1 C 2,8 C 2,8 C 90 % 1017,0 hPa 0,0 l/m 0 min 0 min 0 W/m 3,2 km/h (1 Bft) 97,14 %
22.11.2018 05:52 3,1 C 2,8 C 2,8 C 90 % 1016,9 hPa 0,0 l/m 0 min 0 min 0 W/m 6,4 km/h (2 Bft) 98,11 %
22.11.2018 05:54 3,1 C 2,8 C 2,8 C 90 % 1016,9 hPa 0,0 l/m 0 min 0 min 0 W/m 6,4 km/h (2 Bft) 98,00 %
22.11.2018 05:56 3,1 C 2,8 C 2,8 C 90 % 1016,9 hPa 0,0 l/m 0 min 0 min 0 W/m 6,4 km/h (2 Bft) 97,83 %
22.11.2018 05:58 3,1 C 2,8 C 2,8 C 90 % 1016,9 hPa 0,0 l/m 0 min 0 min 0 W/m 6,4 km/h (2 Bft) 98,00 %
22.11.2018 06:00 3,1 C 2,8 C 2,8 C 90 % 1016,9 hPa 0,0 l/m 0 min 0 min 0 W/m 3,2 km/h (1 Bft) 100,00 %
22.11.2018 06:02 3,1 C 2,8 C 2,8 C 90 % 1016,9 hPa 0,0 l/m 0 min 0 min 0 W/m 6,4 km/h (2 Bft) 100,00 %
22.11.2018 06:04 3,1 C 2,8 C 2,8 C 90 % 1016,9 hPa 0,0 l/m 0 min 0 min 0 W/m 3,2 km/h (1 Bft) 100,00 %
22.11.2018 06:08 3,1 C 2,8 C 2,8 C 91 % 1016,8 hPa 0,0 l/m 0 min 0 min 0 W/m 9,7 km/h (2 Bft) 100,00 %
22.11.2018 06:10 3,1 C 2,8 C 2,8 C 91 % 1016,9 hPa 0,0 l/m 0 min 0 min 0 W/m 6,4 km/h (2 Bft) 100,00 %
22.11.2018 06:12 3,1 C 2,8 C 2,8 C 91 % 1016,9 hPa 0,0 l/m 0 min 0 min 0 W/m 3,2 km/h (1 Bft) 100,00 %
22.11.2018 06:14 3,1 C 2,8 C 2,8 C 91 % 1016,8 hPa 0,0 l/m 0 min 0 min 0 W/m 6,4 km/h (2 Bft) 95,74 %
22.11.2018 06:16 3,1 C 2,8 C 2,8 C 91 % 1016,8 hPa 0,0 l/m 0 min 0 min 0 W/m 6,4 km/h (2 Bft) 96,23 %
22.11.2018 06:18 3,1 C 2,8 C 2,8 C 91 % 1016,8 hPa 0,0 l/m 0 min 0 min 0 W/m 9,7 km/h (2 Bft) 97,87 %
22.11.2018 06:20 3,1 C 2,8 C 2,8 C 91 % 1016,9 hPa 0,0 l/m 0 min 0 min 0 W/m 6,4 km/h (2 Bft) 97,96 %
22.11.2018 06:22 3,1 C 2,8 C 2,8 C 91 % 1016,8 hPa 0,0 l/m 0 min 0 min 0 W/m 6,4 km/h (2 Bft) 98,00 %
22.11.2018 06:24 3,1 C 2,8 C 2,8 C 91 % 1016,9 hPa 0,0 l/m 0 min 0 min 0 W/m 3,2 km/h (1 Bft) 97,14 %
22.11.2018 06:26 3,1 C 2,8 C 2,8 C 91 % 1016,8 hPa 0,0 l/m 0 min 0 min 0 W/m 6,4 km/h (2 Bft) 97,87 %
22.11.2018 06:28 3,1 C 2,8 C 2,8 C 91 % 1016,8 hPa 0,0 l/m 0 min 0 min 0 W/m 6,4 km/h (2 Bft) 98,11 %
22.11.2018 06:30 3,1 C 2,8 C 2,8 C 91 % 1016,8 hPa 0,0 l/m 0 min 0 min 0 W/m 6,4 km/h (2 Bft) 94,00 %
22.11.2018 06:32 3,1 C 2,8 C 2,8 C 91 % 1016,8 hPa 0,0 l/m 0 min 0 min 0 W/m 3,2 km/h (1 Bft) 97,83 %
22.11.2018 06:34 3,1 C 2,8 C 2,8 C 91 % 1016,8 hPa 0,0 l/m 0 min 0 min 0 W/m 3,2 km/h (1 Bft) 98,00 %
22.11.2018 06:36 3,1 C 2,8 C 2,8 C 91 % 1016,8 hPa 0,0 l/m 0 min 0 min 0 W/m 3,2 km/h (1 Bft) 95,74 %
22.11.2018 06:38 3,1 C 2,8 C 2,8 C 91 % 1016,8 hPa 0,0 l/m 0 min 0 min 0 W/m 9,7 km/h (2 Bft) 97,83 %
22.11.2018 06:40 3,1 C 2,8 C 2,8 C 91 % 1016,8 hPa 0,0 l/m 0 min 0 min 0 W/m 6,4 km/h (2 Bft) 94,29 %
22.11.2018 06:42 3,2 C 2,8 C 2,8 C 91 % 1016,8 hPa 0,0 l/m 0 min 0 min 0 W/m 6,4 km/h (2 Bft) 96,30 %
22.11.2018 06:44 3,2 C 2,8 C 2,8 C 91 % 1016,8 hPa 0,0 l/m 0 min 0 min 0 W/m 3,2 km/h (1 Bft) 97,96 %
22.11.2018 06:46 3,2 C 2,8 C 2,8 C 91 % 1016,8 hPa 0,0 l/m 0 min 0 min 0 W/m 6,4 km/h (2 Bft) 94,00 %
22.11.2018 06:48 3,2 C 2,8 C 2,8 C 91 % 1016,8 hPa 0,0 l/m 0 min 0 min 0 W/m 3,2 km/h (1 Bft) 100,00 %
22.11.2018 06:50 3,2 C 2,8 C 2,8 C 91 % 1016,8 hPa 0,0 l/m 0 min 0 min 0 W/m 3,2 km/h (1 Bft) 93,62 %
22.11.2018 06:52 3,2 C 2,8 C 2,8 C 91 % 1016,9 hPa 0,0 l/m 0 min 0 min 0 W/m 3,2 km/h (1 Bft) 94,34 %
22.11.2018 06:54 3,2 C 2,8 C 2,8 C 91 % 1016,8 hPa 0,0 l/m 0 min 0 min 0 W/m 3,2 km/h (1 Bft) 96,00 %
22.11.2018 06:56 3,2 C 2,8 C 2,8 C 91 % 1016,8 hPa 0,0 l/m 0 min 0 min 0 W/m 3,2 km/h (1 Bft) 95,92 %
22.11.2018 06:58 3,2 C 2,8 C 2,8 C 91 % 1016,8 hPa 0,0 l/m 0 min 0 min 0 W/m 3,2 km/h (1 Bft) 97,14 %
22.11.2018 07:00 3,2 C 2,8 C 2,8 C 91 % 1016,7 hPa 0,0 l/m 0 min 0 min 0 W/m 6,4 km/h (2 Bft) 90,57 %
22.11.2018 07:02 3,2 C 2,8 C 2,8 C 91 % 1016,7 hPa 0,0 l/m 0 min 0 min 0 W/m 6,4 km/h (2 Bft) 95,74 %
22.11.2018 07:04 3,2 C 2,8 C 2,8 C 91 % 1016,7 hPa 0,0 l/m 0 min 0 min 0 W/m 6,4 km/h (2 Bft) 91,49 %
22.11.2018 07:06 3,2 C 2,8 C 2,8 C 91 % 1016,7 hPa 0,0 l/m 0 min 0 min 0 W/m 6,4 km/h (2 Bft) 95,92 %
22.11.2018 07:08 3,2 C 2,8 C 2,8 C 91 % 1016,7 hPa 0,0 l/m 0 min 0 min 0 W/m 6,4 km/h (2 Bft) 95,74 %
22.11.2018 07:10 3,2 C 2,8 C 2,8 C 91 % 1016,7 hPa 0,0 l/m 0 min 0 min 0 W/m 6,4 km/h (2 Bft) 97,87 %
22.11.2018 07:12 3,2 C 2,8 C 2,8 C 91 % 1016,7 hPa 0,0 l/m 0 min 0 min 0 W/m 3,2 km/h (1 Bft) 97,87 %
22.11.2018 07:14 3,2 C 2,8 C 2,8 C 91 % 1016,8 hPa 0,0 l/m 0 min 0 min 0 W/m 6,4 km/h (2 Bft) 97,96 %
22.11.2018 07:16 3,2 C 2,8 C 2,8 C 91 % 1016,8 hPa 0,0 l/m 0 min 0 min 0 W/m 6,4 km/h (2 Bft) 97,14 %
22.11.2018 07:18 3,2 C 2,8 C 2,8 C 91 % 1016,7 hPa 0,0 l/m 0 min 0 min 0 W/m 3,2 km/h (1 Bft) 98,15 %
22.11.2018 07:20 3,2 C 2,8 C 2,8 C 91 % 1016,8 hPa 0,0 l/m 0 min 0 min 0 W/m 3,2 km/h (1 Bft) 97,83 %
22.11.2018 07:22 3,2 C 2,8 C 2,8 C 91 % 1016,8 hPa 0,0 l/m 0 min 0 min 0 W/m 3,2 km/h (1 Bft) 98,00 %
22.11.2018 07:24 3,2 C 2,8 C 2,8 C 91 % 1016,8 hPa 0,0 l/m 0 min 0 min 0 W/m 3,2 km/h (1 Bft) 97,96 %
22.11.2018 07:26 3,2 C 2,8 C 2,8 C 91 % 1016,7 hPa 0,0 l/m 0 min 0 min 0 W/m 6,4 km/h (2 Bft) 97,22 %
22.11.2018 07:28 3,2 C 2,8 C 2,8 C 91 % 1016,8 hPa 0,0 l/m 0 min 0 min 0 W/m 3,2 km/h (1 Bft) 98,11 %
22.11.2018 07:30 3,2 C 2,8 C 2,8 C 91 % 1016,8 hPa 0,0 l/m 0 min 0 min 0 W/m 6,4 km/h (2 Bft) 97,96 %
22.11.2018 07:32 3,2 C 2,8 C 2,8 C 91 % 1016,9 hPa 0,0 l/m 0 min 0 min 0 W/m 3,2 km/h (1 Bft) 94,00 %
22.11.2018 07:34 3,2 C 2,8 C 2,8 C 91 % 1016,9 hPa 0,0 l/m 0 min 0 min 0 W/m 3,2 km/h (1 Bft) 94,29 %
22.11.2018 07:36 3,2 C 2,8 C 2,8 C 91 % 1017,0 hPa 0,0 l/m 0 min 0 min 0 W/m 3,2 km/h (1 Bft) 94,34 %
22.11.2018 07:38 3,2 C 2,8 C 2,8 C 91 % 1016,9 hPa 0,0 l/m 0 min 0 min 0 W/m 6,4 km/h (2 Bft) 91,49 %
22.11.2018 07:40 3,2 C 2,8 C 2,8 C 91 % 1017,0 hPa 0,0 l/m 0 min 0 min 0 W/m 6,4 km/h (2 Bft) 95,74 %
22.11.2018 07:42 3,3 C 2,8 C 2,8 C 91 % 1017,0 hPa 0,0 l/m 0 min 0 min 0 W/m 6,4 km/h (2 Bft) 91,84 %
22.11.2018 07:44 3,3 C 2,8 C 2,8 C 91 % 1017,0 hPa 0,0 l/m 0 min 0 min 0 W/m 6,4 km/h (2 Bft) 96,00 %
22.11.2018 07:46 3,3 C 2,8 C 2,8 C 91 % 1017,0 hPa 0,0 l/m 0 min 0 min 0 W/m 6,4 km/h (2 Bft) 97,87 %
22.11.2018 07:48 3,2 C 2,8 C 2,8 C 91 % 1017,0 hPa 0,0 l/m 0 min 0 min 0 W/m 3,2 km/h (1 Bft) 97,14 %
22.11.2018 07:50 3,2 C 2,8 C 2,8 C 91 % 1017,0 hPa 0,0 l/m 0 min 0 min 0 W/m 6,4 km/h (2 Bft) 98,11 %
22.11.2018 07:52 3,3 C 2,8 C 2,8 C 91 % 1017,0 hPa 0,0 l/m 0 min 0 min 0 W/m 3,2 km/h (1 Bft) 97,87 %
22.11.2018 07:54 3,3 C 2,8 C 2,8 C 91 % 1016,9 hPa 0,0 l/m 0 min 0 min 0 W/m 6,4 km/h (2 Bft) 95,92 %
22.11.2018 07:56 3,3 C 2,8 C 2,8 C 91 % 1016,9 hPa 0,0 l/m 0 min 0 min 0 W/m 3,2 km/h (1 Bft) 96,00 %
22.11.2018 07:58 3,3 C 2,8 C 2,8 C 91 % 1017,0 hPa 0,0 l/m 0 min 0 min 0 W/m 0,0 km/h (0 Bft) 95,74 %
22.11.2018 08:00 3,3 C 2,8 C 2,8 C 91 % 1016,9 hPa 0,0 l/m 0 min 0 min 0 W/m 0,0 km/h (0 Bft) 100,00 %
22.11.2018 08:02 3,3 C 2,8 C 2,8 C 91 % 1016,9 hPa 0,0 l/m 0 min 0 min 0 W/m 0,0 km/h (0 Bft) 96,23 %
22.11.2018 08:04 3,3 C 2,8 C 2,8 C 91 % 1016,9 hPa 0,0 l/m 0 min 0 min 0 W/m 0,0 km/h (0 Bft) 93,62 %
22.11.2018 08:06 3,3 C 2,8 C 2,8 C 91 % 1016,9 hPa 0,0 l/m 0 min 0 min 0 W/m 3,2 km/h (1 Bft) 97,96 %
22.11.2018 08:08 3,3 C 2,8 C 2,8 C 91 % 1017,0 hPa 0,0 l/m 0 min 0 min 2 W/m 6,4 km/h (2 Bft) 98,00 %
22.11.2018 08:10 3,3 C 2,8 C 2,8 C 91 % 1017,0 hPa 0,0 l/m 0 min 0 min 5 W/m 3,2 km/h (1 Bft) 97,83 %
22.11.2018 08:12 3,3 C 2,8 C 2,8 C 91 % 1016,9 hPa 0,0 l/m 0 min 0 min 5 W/m 6,4 km/h (2 Bft) 97,22 %
22.11.2018 08:14 3,3 C 2,8 C 2,8 C 91 % 1016,8 hPa 0,0 l/m 0 min 0 min 7 W/m 6,4 km/h (2 Bft) 93,48 %
22.11.2018 08:16 3,3 C 2,8 C 2,8 C 91 % 1016,9 hPa 0,0 l/m 0 min 0 min 8 W/m 6,4 km/h (2 Bft) 98,15 %
22.11.2018 08:18 3,3 C 2,8 C 2,8 C 91 % 1016,8 hPa 0,0 l/m 0 min 0 min 9 W/m 6,4 km/h (2 Bft) 97,96 %
22.11.2018 08:20 3,2 C 2,8 C 2,8 C 91 % 1016,9 hPa 0,0 l/m 0 min 0 min 9 W/m 3,2 km/h (1 Bft) 97,87 %
22.11.2018 08:22 3,3 C 2,8 C 2,8 C 91 % 1016,9 hPa 0,0 l/m 0 min 0 min 9 W/m 3,2 km/h (1 Bft) 95,74 %
22.11.2018 08:24 3,3 C 2,8 C 2,8 C 91 % 1016,9 hPa 0,0 l/m 0 min 0 min 11 W/m 6,4 km/h (2 Bft) 97,87 %
22.11.2018 08:26 3,2 C 2,8 C 2,8 C 91 % 1016,9 hPa 0,0 l/m 0 min 0 min 11 W/m 6,4 km/h (2 Bft) 87,76 %
22.11.2018 08:28 3,2 C 2,8 C 2,8 C 91 % 1016,9 hPa 0,0 l/m 0 min 0 min 11 W/m 6,4 km/h (2 Bft) 94,29 %
22.11.2018 08:30 3,2 C 2,8 C 2,8 C 91 % 1016,9 hPa 0,0 l/m 0 min 0 min 12 W/m 6,4 km/h (2 Bft) 98,11 %
22.11.2018 08:32 3,2 C 2,8 C 2,8 C 91 % 1017,0 hPa 0,0 l/m 0 min 0 min 13 W/m 6,4 km/h (2 Bft) 84,00 %
22.11.2018 08:34 3,2 C 2,8 C 2,8 C 91 % 1017,0 hPa 0,0 l/m 0 min 0 min 14 W/m 6,4 km/h (2 Bft) 91,84 %
22.11.2018 08:36 3,2 C 2,8 C 2,8 C 91 % 1017,0 hPa 0,0 l/m 0 min 0 min 15 W/m 6,4 km/h (2 Bft) 91,49 %
22.11.2018 08:38 3,3 C 2,8 C 2,8 C 91 % 1017,0 hPa 0,0 l/m 0 min 0 min 15 W/m 6,4 km/h (2 Bft) 97,87 %
22.11.2018 08:40 3,3 C 2,8 C 2,8 C 91 % 1017,0 hPa 0,0 l/m 0 min 0 min 16 W/m 6,4 km/h (2 Bft) 97,14 %
22.11.2018 08:42 3,3 C 3,3 C 2,8 C 91 % 1017,0 hPa 0,0 l/m 0 min 0 min 18 W/m 6,4 km/h (2 Bft) 96,23 %
22.11.2018 08:44 3,3 C 3,3 C 2,8 C 91 % 1017,1 hPa 0,0 l/m 0 min 0 min 19 W/m 6,4 km/h (2 Bft) 98,00 %
22.11.2018 08:46 3,3 C 3,3 C 2,8 C 91 % 1016,9 hPa 0,0 l/m 0 min 0 min 21 W/m 3,2 km/h (1 Bft) 100,00 %
22.11.2018 08:48 3,3 C 3,3 C 2,8 C 91 % 1017,0 hPa 0,0 l/m 0 min 0 min 22 W/m 3,2 km/h (1 Bft) 100,00 %
22.11.2018 08:50 3,3 C 3,3 C 2,8 C 91 % 1017,0 hPa 0,0 l/m 0 min 0 min 25 W/m 6,4 km/h (2 Bft) 96,23 %
22.11.2018 08:52 3,3 C 3,3 C 2,8 C 91 % 1017,0 hPa 0,0 l/m 0 min 0 min 27 W/m 6,4 km/h (2 Bft) 100,00 %
22.11.2018 08:54 3,3 C 3,3 C 2,8 C 91 % 1016,9 hPa 0,0 l/m 0 min 0 min 30 W/m 3,2 km/h (1 Bft) 94,00 %
22.11.2018 08:56 3,4 C 3,3 C 2,8 C 91 % 1016,9 hPa 0,0 l/m 0 min 0 min 34 W/m 6,4 km/h (2 Bft) 92,00 %
22.11.2018 08:58 3,4 C 3,3 C 2,8 C 91 % 1016,9 hPa 0,0 l/m 0 min 0 min 37 W/m 6,4 km/h (2 Bft) 97,14 %
22.11.2018 09:00 3,4 C 3,9 C 2,8 C 91 % 1017,0 hPa 0,0 l/m 0 min 0 min 38 W/m 6,4 km/h (2 Bft) 98,11 %
22.11.2018 09:02 3,5 C 3,9 C 3,3 C 91 % 1017,0 hPa 0,0 l/m 0 min 0 min 40 W/m 9,7 km/h (2 Bft) 94,00 %
22.11.2018 09:04 3,5 C 3,9 C 3,3 C 91 % 1017,0 hPa 0,0 l/m 0 min 0 min 41 W/m 6,4 km/h (2 Bft) 95,92 %
22.11.2018 09:06 3,6 C 3,9 C 3,3 C 90 % 1017,0 hPa 0,0 l/m 0 min 0 min 44 W/m 9,7 km/h (2 Bft) 97,87 %
22.11.2018 09:08 3,6 C 3,9 C 3,3 C 90 % 1017,0 hPa 0,0 l/m 0 min 0 min 46 W/m 9,7 km/h (2 Bft) 100,00 %
22.11.2018 09:10 3,6 C 3,9 C 3,3 C 90 % 1017,1 hPa 0,0 l/m 0 min 0 min 47 W/m 12,9 km/h (3 Bft) 95,74 %
22.11.2018 09:12 3,7 C 3,9 C 3,3 C 90 % 1017,1 hPa 0,0 l/m 0 min 0 min 48 W/m 12,9 km/h (3 Bft) 94,34 %
22.11.2018 09:14 3,7 C 3,9 C 3,3 C 90 % 1017,1 hPa 0,0 l/m 0 min 0 min 51 W/m 6,4 km/h (2 Bft) 97,96 %
22.11.2018 09:16 3,8 C 3,9 C 3,3 C 89 % 1017,0 hPa 0,0 l/m 0 min 0 min 54 W/m 9,7 km/h (2 Bft) 98,00 %
22.11.2018 09:18 3,8 C 3,9 C 3,3 C 89 % 1017,1 hPa 0,0 l/m 0 min 0 min 55 W/m 9,7 km/h (2 Bft) 97,87 %
22.11.2018 09:20 3,9 C 3,9 C 3,3 C 89 % 1017,1 hPa 0,0 l/m 0 min 0 min 58 W/m 9,7 km/h (2 Bft) 97,14 %
22.11.2018 09:22 3,9 C 4,4 C 3,3 C 89 % 1017,0 hPa 0,0 l/m 0 min 0 min 63 W/m 9,7 km/h (2 Bft) 97,87 %
22.11.2018 09:24 3,9 C 4,4 C 3,3 C 88 % 1017,1 hPa 0,0 l/m 0 min 0 min 67 W/m 12,9 km/h (3 Bft) 96,23 %
22.11.2018 09:26 4,0 C 4,4 C 3,3 C 88 % 1017,1 hPa 0,0 l/m 0 min 0 min 71 W/m 9,7 km/h (2 Bft) 97,87 %
22.11.2018 09:28 4,1 C 4,4 C 3,9 C 88 % 1017,1 hPa 0,0 l/m 0 min 0 min 74 W/m 9,7 km/h (2 Bft) 97,96 %
22.11.2018 09:30 4,1 C 4,4 C 3,9 C 88 % 1017,1 hPa 0,0 l/m 0 min 0 min 77 W/m 9,7 km/h (2 Bft) 95,74 %
22.11.2018 09:32 4,1 C 4,4 C 3,9 C 88 % 1017,0 hPa 0,0 l/m 0 min 0 min 79 W/m 16,1 km/h (3 Bft) 96,00 %
22.11.2018 09:34 4,1 C 4,4 C 3,9 C 87 % 1017,1 hPa 0,0 l/m 0 min 0 min 82 W/m 6,4 km/h (2 Bft) 95,65 %
22.11.2018 09:36 4,2 C 4,4 C 3,9 C 87 % 1017,1 hPa 0,0 l/m 0 min 0 min 85 W/m 6,4 km/h (2 Bft) 97,87 %
22.11.2018 09:38 4,2 C 4,4 C 3,9 C 87 % 1017,1 hPa 0,0 l/m 0 min 0 min 87 W/m 9,7 km/h (2 Bft) 100,00 %
22.11.2018 09:40 4,2 C 4,4 C 3,9 C 87 % 1017,1 hPa 0,0 l/m 0 min 0 min 91 W/m 12,9 km/h (3 Bft) 100,00 %
22.11.2018 09:42 4,2 C 4,4 C 3,9 C 87 % 1017,1 hPa 0,0 l/m 2 min 0 min 97 W/m 12,9 km/h (3 Bft) 98,11 %
22.11.2018 09:44 4,3 C 5,0 C 3,9 C 87 % 1017,1 hPa 0,0 l/m 2 min 0 min 102 W/m 9,7 km/h (2 Bft) 100,00 %
22.11.2018 09:46 4,3 C 5,0 C 3,9 C 87 % 1017,1 hPa 0,0 l/m 2 min 0 min 104 W/m 12,9 km/h (3 Bft) 97,96 %
22.11.2018 09:48 4,3 C 5,0 C 3,9 C 87 % 1017,1 hPa 0,0 l/m 2 min 0 min 105 W/m 12,9 km/h (3 Bft) 100,00 %
22.11.2018 09:50 4,4 C 5,0 C 4,4 C 87 % 1017,2 hPa 0,0 l/m 2 min 0 min 112 W/m 9,7 km/h (2 Bft) 91,43 %
22.11.2018 09:52 4,4 C 5,6 C 4,4 C 87 % 1017,2 hPa 0,0 l/m 2 min 0 min 124 W/m 9,7 km/h (2 Bft) 98,11 %
22.11.2018 09:54 4,4 C 5,6 C 4,4 C 86 % 1017,3 hPa 0,0 l/m 2 min 0 min 129 W/m 19,3 km/h (3 Bft) 100,00 %
22.11.2018 09:56 4,5 C 5,6 C 4,4 C 86 % 1017,2 hPa 0,0 l/m 2 min 0 min 144 W/m 12,9 km/h (3 Bft) 100,00 %
22.11.2018 09:58 4,5 C 5,6 C 4,4 C 86 % 1017,1 hPa 0,0 l/m 2 min 0 min 147 W/m 12,9 km/h (3 Bft) 100,00 %
22.11.2018 10:00 4,6 C 5,6 C 4,4 C 86 % 1017,1 hPa 0,0 l/m 2 min 0 min 144 W/m 12,9 km/h (3 Bft) 100,00 %
22.11.2018 10:02 4,6 C 5,6 C 4,4 C 86 % 1017,1 hPa 0,0 l/m 2 min 0 min 143 W/m 12,9 km/h (3 Bft) 100,00 %
22.11.2018 10:04 4,6 C 5,6 C 4,4 C 86 % 1017,1 hPa 0,0 l/m 2 min 0 min 146 W/m 12,9 km/h (3 Bft) 100,00 %
22.11.2018 10:06 4,7 C 5,6 C 4,4 C 86 % 1017,1 hPa 0,0 l/m 2 min 0 min 146 W/m 12,9 km/h (3 Bft) 97,87 %
22.11.2018 10:08 4,7 C 5,6 C 4,4 C 86 % 1017,1 hPa 0,0 l/m 2 min 0 min 158 W/m 22,5 km/h (4 Bft) 100,00 %
22.11.2018 10:10 4,7 C 5,6 C 4,4 C 85 % 1017,1 hPa 0,0 l/m 2 min 0 min 173 W/m 29,0 km/h (5 Bft) 97,14 %
22.11.2018 10:12 4,8 C 5,6 C 5,0 C 85 % 1017,1 hPa 0,0 l/m 2 min 0 min 178 W/m 9,7 km/h (2 Bft) 100,00 %
22.11.2018 10:14 4,8 C 5,6 C 5,0 C 85 % 1017,1 hPa 0,0 l/m 2 min 0 min 142 W/m 12,9 km/h (3 Bft) 97,96 %
22.11.2018 10:16 4,8 C 5,6 C 5,0 C 85 % 1017,1 hPa 0,0 l/m 2 min 0 min 161 W/m 25,7 km/h (4 Bft) 98,00 %
22.11.2018 10:18 4,9 C 5,6 C 5,0 C 85 % 1017,1 hPa 0,0 l/m 2 min 0 min 167 W/m 12,9 km/h (3 Bft) 97,83 %
22.11.2018 10:20 4,9 C 5,6 C 5,0 C 84 % 1017,1 hPa 0,0 l/m 2 min 0 min 156 W/m 25,7 km/h (4 Bft) 100,00 %
22.11.2018 10:22 4,9 C 5,6 C 5,0 C 84 % 1017,2 hPa 0,0 l/m 2 min 0 min 146 W/m 19,3 km/h (3 Bft) 97,87 %
22.11.2018 10:24 4,9 C 5,0 C 5,0 C 84 % 1017,2 hPa 0,0 l/m 2 min 0 min 142 W/m 16,1 km/h (3 Bft) 94,34 %
22.11.2018 10:26 4,9 C 5,0 C 4,4 C 84 % 1017,2 hPa 0,0 l/m 0 min 0 min 122 W/m 19,3 km/h (3 Bft) 97,83 %
22.11.2018 10:28 4,9 C 5,0 C 4,4 C 84 % 1017,2 hPa 0,0 l/m 0 min 0 min 112 W/m 22,5 km/h (4 Bft) 91,49 %
22.11.2018 10:30 4,9 C 5,0 C 4,4 C 84 % 1017,2 hPa 0,0 l/m 0 min 0 min 110 W/m 16,1 km/h (3 Bft) 96,00 %
22.11.2018 10:32 4,9 C 5,0 C 4,4 C 84 % 1017,2 hPa 0,0 l/m 0 min 0 min 81 W/m 9,7 km/h (2 Bft) 95,92 %
22.11.2018 10:34 4,9 C 5,0 C 4,4 C 84 % 1017,2 hPa 0,0 l/m 0 min 0 min 70 W/m 9,7 km/h (2 Bft) 97,14 %
22.11.2018 10:36 4,9 C 5,0 C 4,4 C 84 % 1017,2 hPa 0,0 l/m 0 min 0 min 63 W/m 12,9 km/h (3 Bft) 96,30 %
22.11.2018 10:38 5,0 C 4,4 C 4,4 C 84 % 1017,2 hPa 0,0 l/m 0 min 0 min 52 W/m 12,9 km/h (3 Bft) 95,65 %
22.11.2018 10:40 4,9 C 4,4 C 4,4 C 84 % 1017,3 hPa 0,0 l/m 0 min 0 min 40 W/m 9,7 km/h (2 Bft) 95,74 %
22.11.2018 10:42 4,9 C 4,4 C 3,9 C 84 % 1017,3 hPa 0,0 l/m 0 min 0 min 35 W/m 12,9 km/h (3 Bft) 98,00 %
22.11.2018 10:44 4,9 C 4,4 C 3,9 C 84 % 1017,3 hPa 0,0 l/m 0 min 0 min 43 W/m 9,7 km/h (2 Bft) 97,96 %
22.11.2018 10:46 4,9 C 5,0 C 4,4 C 84 % 1017,4 hPa 0,0 l/m 0 min 0 min 66 W/m 9,7 km/h (2 Bft) 97,14 %
22.11.2018 10:48 4,9 C 5,0 C 4,4 C 84 % 1017,4 hPa 0,0 l/m 0 min 0 min 79 W/m 6,4 km/h (2 Bft) 94,44 %
22.11.2018 10:50 4,9 C 5,0 C 4,4 C 84 % 1017,4 hPa 0,0 l/m 0 min 0 min 77 W/m 9,7 km/h (2 Bft) 95,65 %
22.11.2018 10:52 4,9 C 5,0 C 4,4 C 84 % 1017,3 hPa 0,0 l/m 0 min 0 min 80 W/m 12,9 km/h (3 Bft) 95,74 %
22.11.2018 10:54 4,9 C 5,0 C 4,4 C 84 % 1017,4 hPa 0,0 l/m 0 min 0 min 87 W/m 22,5 km/h (4 Bft) 96,00 %
22.11.2018 10:56 4,9 C 5,0 C 4,4 C 84 % 1017,4 hPa 0,0 l/m 0 min 0 min 104 W/m 25,7 km/h (4 Bft) 95,74 %
22.11.2018 10:58 4,9 C 5,0 C 4,4 C 83 % 1017,3 hPa 0,0 l/m 0 min 0 min 120 W/m 22,5 km/h (4 Bft) 95,92 %
22.11.2018 11:00 4,9 C 5,0 C 4,4 C 83 % 1017,3 hPa 0,0 l/m 0 min 0 min 121 W/m 25,7 km/h (4 Bft) 94,29 %
22.11.2018 11:02 5,0 C 5,0 C 4,4 C 83 % 1017,3 hPa 0,0 l/m 0 min 0 min 86 W/m 22,5 km/h (4 Bft) 94,34 %
22.11.2018 11:04 5,0 C 5,0 C 4,4 C 83 % 1017,3 hPa 0,0 l/m 0 min 0 min 67 W/m 22,5 km/h (4 Bft) 92,00 %
22.11.2018 11:06 5,0 C 5,0 C 4,4 C 83 % 1017,3 hPa 0,0 l/m 0 min 0 min 81 W/m 16,1 km/h (3 Bft) 93,88 %
22.11.2018 11:08 5,0 C 5,0 C 4,4 C 83 % 1017,3 hPa 0,0 l/m 0 min 0 min 81 W/m 12,9 km/h (3 Bft) 93,62 %
22.11.2018 11:10 5,0 C 5,0 C 4,4 C 83 % 1017,4 hPa 0,0 l/m 0 min 0 min 68 W/m 22,5 km/h (4 Bft) 97,87 %
22.11.2018 11:12 5,0 C 5,0 C 4,4 C 82 % 1017,4 hPa 0,0 l/m 0 min 0 min 71 W/m 12,9 km/h (3 Bft) 97,14 %
22.11.2018 11:14 5,0 C 5,0 C 4,4 C 82 % 1017,3 hPa 0,0 l/m 0 min 0 min 72 W/m 12,9 km/h (3 Bft) 96,23 %
22.11.2018 11:16 5,1 C 5,0 C 4,4 C 82 % 1017,4 hPa 0,0 l/m 0 min 0 min 73 W/m 16,1 km/h (3 Bft) 96,00 %
22.11.2018 11:18 5,1 C 5,0 C 4,4 C 82 % 1017,3 hPa 0,0 l/m 0 min 0 min 68 W/m 16,1 km/h (3 Bft) 95,92 %
22.11.2018 11:20 5,1 C 5,0 C 4,4 C 82 % 1017,3 hPa 0,0 l/m 0 min 0 min 67 W/m 16,1 km/h (3 Bft) 100,00 %
22.11.2018 11:22 5,1 C 5,0 C 4,4 C 82 % 1017,2 hPa 0,0 l/m 0 min 0 min 75 W/m 22,5 km/h (4 Bft) 96,30 %
22.11.2018 11:24 5,1 C 5,0 C 4,4 C 82 % 1017,2 hPa 0,0 l/m 0 min 0 min 75 W/m 22,5 km/h (4 Bft) 95,92 %
22.11.2018 11:26 5,1 C 5,0 C 4,4 C 82 % 1017,3 hPa 0,0 l/m 0 min 0 min 74 W/m 19,3 km/h (3 Bft) 96,00 %
22.11.2018 11:28 5,1 C 5,0 C 4,4 C 82 % 1017,4 hPa 0,0 l/m 0 min 0 min 77 W/m 19,3 km/h (3 Bft) 93,62 %
22.11.2018 11:30 5,1 C 5,0 C 4,4 C 82 % 1017,4 hPa 0,0 l/m 0 min 0 min 90 W/m 16,1 km/h (3 Bft) 94,29 %
22.11.2018 11:32 5,1 C 5,0 C 4,4 C 82 % 1017,4 hPa 0,0 l/m 0 min 0 min 100 W/m 12,9 km/h (3 Bft) 96,23 %
22.11.2018 11:34 5,1 C 5,0 C 4,4 C 82 % 1017,4 hPa 0,0 l/m 0 min 0 min 112 W/m 29,0 km/h (5 Bft) 95,92 %
22.11.2018 11:36 5,1 C 5,0 C 4,4 C 82 % 1017,4 hPa 0,0 l/m 0 min 0 min 130 W/m 19,3 km/h (3 Bft) 98,00 %
22.11.2018 11:38 5,1 C 5,6 C 4,4 C 82 % 1017,4 hPa 0,0 l/m 0 min 0 min 142 W/m 16,1 km/h (3 Bft) 95,74 %
22.11.2018 11:40 5,1 C 5,6 C 5,0 C 82 % 1017,4 hPa 0,0 l/m 0 min 0 min 142 W/m 22,5 km/h (4 Bft) 95,74 %
22.11.2018 11:42 5,1 C 5,6 C 5,0 C 82 % 1017,4 hPa 0,0 l/m 0 min 0 min 144 W/m 19,3 km/h (3 Bft) 100,00 %
22.11.2018 11:44 5,1 C 5,6 C 5,0 C 82 % 1017,4 hPa 0,0 l/m 0 min 0 min 142 W/m 12,9 km/h (3 Bft) 96,23 %
22.11.2018 11:46 5,2 C 5,6 C 5,0 C 82 % 1017,4 hPa 0,0 l/m 0 min 0 min 146 W/m 22,5 km/h (4 Bft) 97,87 %
22.11.2018 11:48 5,2 C 5,6 C 5,0 C 82 % 1017,4 hPa 0,0 l/m 0 min 0 min 145 W/m 16,1 km/h (3 Bft) 97,96 %
22.11.2018 11:50 5,2 C 5,6 C 5,0 C 82 % 1017,4 hPa 0,0 l/m 0 min 0 min 125 W/m 12,9 km/h (3 Bft) 91,49 %
22.11.2018 11:52 5,2 C 5,6 C 5,0 C 82 % 1017,4 hPa 0,0 l/m 0 min 0 min 122 W/m 16,1 km/h (3 Bft) 97,87 %
22.11.2018 11:54 5,2 C 5,6 C 5,0 C 82 % 1017,5 hPa 0,0 l/m 0 min 0 min 113 W/m 19,3 km/h (3 Bft) 95,92 %
22.11.2018 11:56 5,2 C 5,6 C 5,0 C 81 % 1017,5 hPa 0,0 l/m 0 min 0 min 107 W/m 16,1 km/h (3 Bft) 97,14 %
22.11.2018 11:58 5,2 C 5,6 C 5,0 C 81 % 1017,4 hPa 0,0 l/m 0 min 0 min 117 W/m 19,3 km/h (3 Bft) 98,11 %
22.11.2018 12:00 5,2 C 5,6 C 5,0 C 81 % 1017,4 hPa 0,0 l/m 0 min 0 min 133 W/m 12,9 km/h (3 Bft) 96,00 %
22.11.2018 12:02 5,2 C 5,6 C 5,0 C 81 % 1017,5 hPa 0,0 l/m 0 min 0 min 122 W/m 19,3 km/h (3 Bft) 96,00 %
22.11.2018 12:04 5,3 C 5,0 C 5,0 C 81 % 1017,5 hPa 0,0 l/m 0 min 0 min 101 W/m 19,3 km/h (3 Bft) 97,14 %
22.11.2018 12:08 5,3 C 5,0 C 4,4 C 81 % 1017,5 hPa 0,0 l/m 0 min 0 min 87 W/m 19,3 km/h (3 Bft) 98,92 %
22.11.2018 12:10 5,3 C 5,0 C 4,4 C 81 % 1017,5 hPa 0,0 l/m 0 min 0 min 80 W/m 19,3 km/h (3 Bft) 100,00 %
22.11.2018 12:12 5,3 C 5,0 C 4,4 C 81 % 1017,5 hPa 0,0 l/m 0 min 0 min 87 W/m 12,9 km/h (3 Bft) 100,00 %
22.11.2018 12:14 5,3 C 5,0 C 4,4 C 81 % 1017,4 hPa 0,0 l/m 0 min 0 min 100 W/m 19,3 km/h (3 Bft) 98,00 %
22.11.2018 12:16 5,3 C 5,6 C 5,0 C 81 % 1017,4 hPa 0,0 l/m 0 min 0 min 111 W/m 9,7 km/h (2 Bft) 97,87 %
22.11.2018 12:18 5,3 C 5,6 C 5,0 C 81 % 1017,3 hPa 0,0 l/m 0 min 0 min 116 W/m 12,9 km/h (3 Bft) 100,00 %
22.11.2018 12:20 5,3 C 5,6 C 5,0 C 81 % 1017,3 hPa 0,0 l/m 0 min 0 min 125 W/m 16,1 km/h (3 Bft) 97,87 %
22.11.2018 12:22 5,3 C 5,6 C 5,0 C 81 % 1017,3 hPa 0,0 l/m 0 min 0 min 128 W/m 22,5 km/h (4 Bft) 97,14 %
22.11.2018 12:24 5,3 C 5,6 C 5,0 C 81 % 1017,3 hPa 0,0 l/m 0 min 0 min 134 W/m 16,1 km/h (3 Bft) 100,00 %
22.11.2018 12:26 5,3 C 5,6 C 5,0 C 81 % 1017,3 hPa 0,0 l/m 0 min 0 min 130 W/m 19,3 km/h (3 Bft) 100,00 %
22.11.2018 12:28 5,3 C 5,6 C 5,0 C 81 % 1017,2 hPa 0,0 l/m 0 min 0 min 139 W/m 25,7 km/h (4 Bft) 100,00 %
22.11.2018 12:30 5,3 C 5,6 C 5,0 C 81 % 1017,3 hPa 0,0 l/m 0 min 0 min 129 W/m 35,4 km/h (5 Bft) 100,00 %
22.11.2018 12:32 5,3 C 5,6 C 5,0 C 81 % 1017,2 hPa 0,0 l/m 0 min 0 min 130 W/m 29,0 km/h (5 Bft) 97,87 %
22.11.2018 12:34 5,3 C 5,6 C 5,0 C 81 % 1017,2 hPa 0,0 l/m 0 min 0 min 130 W/m 32,2 km/h (5 Bft) 100,00 %
22.11.2018 12:36 5,3 C 5,6 C 5,0 C 80 % 1017,2 hPa 0,0 l/m 0 min 0 min 128 W/m 22,5 km/h (4 Bft) 98,11 %
22.11.2018 12:38 5,3 C 5,6 C 5,0 C 80 % 1017,2 hPa 0,0 l/m 0 min 0 min 114 W/m 12,9 km/h (3 Bft) 100,00 %
22.11.2018 12:40 5,4 C 5,6 C 5,0 C 81 % 1017,2 hPa 0,0 l/m 0 min 0 min 97 W/m 12,9 km/h (3 Bft) 100,00 %
22.11.2018 12:42 5,4 C 5,6 C 5,0 C 81 % 1017,2 hPa 0,0 l/m 0 min 0 min 86 W/m 22,5 km/h (4 Bft) 100,00 %
22.11.2018 12:44 5,4 C 5,6 C 5,0 C 81 % 1017,3 hPa 0,0 l/m 0 min 0 min 81 W/m 22,5 km/h (4 Bft) 100,00 %
22.11.2018 12:46 5,4 C 5,6 C 5,0 C 81 % 1017,2 hPa 0,0 l/m 0 min 0 min 80 W/m 22,5 km/h (4 Bft) 100,00 %
22.11.2018 12:48 5,4 C 5,0 C 5,0 C 81 % 1017,2 hPa 0,0 l/m 0 min 0 min 80 W/m 22,5 km/h (4 Bft) 100,00 %
22.11.2018 12:50 5,4 C 5,0 C 5,0 C 81 % 1017,2 hPa 0,0 l/m 0 min 0 min 80 W/m 25,7 km/h (4 Bft) 100,00 %
22.11.2018 12:52 5,4 C 5,0 C 5,0 C 80 % 1017,2 hPa 0,0 l/m 0 min 0 min 83 W/m 25,7 km/h (4 Bft) 100,00 %
22.11.2018 12:54 5,4 C 5,0 C 5,0 C 80 % 1017,1 hPa 0,0 l/m 0 min 0 min 81 W/m 22,5 km/h (4 Bft) 100,00 %
22.11.2018 12:56 5,4 C 5,0 C 5,0 C 80 % 1017,2 hPa 0,0 l/m 0 min 0 min 76 W/m 22,5 km/h (4 Bft) 100,00 %
22.11.2018 12:58 5,4 C 5,0 C 5,0 C 81 % 1017,2 hPa 0,0 l/m 0 min 0 min 78 W/m 12,9 km/h (3 Bft) 100,00 %
22.11.2018 13:00 5,4 C 5,6 C 5,0 C 81 % 1017,3 hPa 0,0 l/m 0 min 0 min 82 W/m 12,9 km/h (3 Bft) 98,00 %
22.11.2018 13:02 5,4 C 5,0 C 5,0 C 81 % 1017,3 hPa 0,0 l/m 0 min 0 min 83 W/m 29,0 km/h (5 Bft) 100,00 %
22.11.2018 13:04 5,4 C 5,0 C 5,0 C 81 % 1017,2 hPa 0,0 l/m 0 min 0 min 84 W/m 25,7 km/h (4 Bft) 100,00 %
22.11.2018 13:06 5,4 C 5,0 C 5,0 C 80 % 1017,1 hPa 0,0 l/m 0 min 0 min 89 W/m 22,5 km/h (4 Bft) 100,00 %
22.11.2018 13:08 5,4 C 5,6 C 5,0 C 81 % 1017,1 hPa 0,0 l/m 0 min 0 min 93 W/m 25,7 km/h (4 Bft) 100,00 %
22.11.2018 13:10 5,4 C 5,6 C 5,0 C 81 % 1017,1 hPa 0,0 l/m 0 min 0 min 95 W/m 16,1 km/h (3 Bft) 100,00 %
22.11.2018 13:12 5,4 C 5,6 C 5,0 C 81 % 1017,2 hPa 0,0 l/m 0 min 0 min 95 W/m 25,7 km/h (4 Bft) 100,00 %
22.11.2018 13:14 5,4 C 5,6 C 5,0 C 81 % 1017,1 hPa 0,0 l/m 0 min 0 min 99 W/m 22,5 km/h (4 Bft) 100,00 %
22.11.2018 13:16 5,4 C 5,6 C 5,0 C 81 % 1017,1 hPa 0,0 l/m 0 min 0 min 105 W/m 19,3 km/h (3 Bft) 100,00 %
22.11.2018 13:18 5,4 C 5,6 C 5,0 C 81 % 1017,0 hPa 0,0 l/m 0 min 0 min 110 W/m 12,9 km/h (3 Bft) 100,00 %
22.11.2018 13:20 5,4 C 5,6 C 5,0 C 81 % 1016,9 hPa 0,0 l/m 0 min 0 min 116 W/m 16,1 km/h (3 Bft) 100,00 %
22.11.2018 13:22 5,4 C 5,6 C 5,0 C 81 % 1016,9 hPa 0,0 l/m 0 min 0 min 123 W/m 22,5 km/h (4 Bft) 97,83 %
22.11.2018 13:24 5,5 C 5,6 C 5,0 C 81 % 1017,0 hPa 0,0 l/m 0 min 0 min 129 W/m 19,3 km/h (3 Bft) 100,00 %
22.11.2018 13:26 5,5 C 5,6 C 5,0 C 81 % 1016,9 hPa 0,0 l/m 0 min 0 min 128 W/m 16,1 km/h (3 Bft) 98,00 %
22.11.2018 13:28 5,5 C 5,6 C 5,0 C 81 % 1016,9 hPa 0,0 l/m 0 min 0 min 132 W/m 16,1 km/h (3 Bft) 97,96 %
22.11.2018 13:30 5,6 C 6,1 C 5,0 C 81 % 1016,8 hPa 0,0 l/m 0 min 0 min 132 W/m 16,1 km/h (3 Bft) 97,14 %
22.11.2018 13:32 5,6 C 6,1 C 5,0 C 81 % 1016,8 hPa 0,0 l/m 0 min 0 min 129 W/m 22,5 km/h (4 Bft) 95,74 %
22.11.2018 13:34 5,6 C 6,1 C 5,0 C 81 % 1016,8 hPa 0,0 l/m 0 min 0 min 119 W/m 16,1 km/h (3 Bft) 94,34 %
22.11.2018 13:36 5,6 C 6,1 C 5,0 C 81 % 1016,8 hPa 0,0 l/m 0 min 0 min 119 W/m 12,9 km/h (3 Bft) 98,00 %
22.11.2018 13:38 5,6 C 6,1 C 5,0 C 81 % 1016,8 hPa 0,0 l/m 0 min 0 min 111 W/m 16,1 km/h (3 Bft) 95,74 %
22.11.2018 13:40 5,7 C 6,1 C 5,0 C 81 % 1016,8 hPa 0,0 l/m 0 min 0 min 104 W/m 9,7 km/h (2 Bft) 97,87 %
22.11.2018 13:42 5,7 C 5,6 C 5,0 C 81 % 1016,7 hPa 0,0 l/m 0 min 0 min 98 W/m 16,1 km/h (3 Bft) 93,88 %
22.11.2018 13:44 5,7 C 5,6 C 5,0 C 81 % 1016,8 hPa 0,0 l/m 0 min 0 min 97 W/m 22,5 km/h (4 Bft) 95,74 %
22.11.2018 13:46 5,7 C 5,6 C 5,0 C 80 % 1016,8 hPa 0,0 l/m 0 min 0 min 101 W/m 16,1 km/h (3 Bft) 95,74 %
22.11.2018 13:48 5,7 C 5,6 C 5,0 C 80 % 1016,7 hPa 0,0 l/m 0 min 0 min 111 W/m 22,5 km/h (4 Bft) 97,14 %
22.11.2018 13:50 5,7 C 6,1 C 5,0 C 80 % 1016,8 hPa 0,0 l/m 0 min 0 min 118 W/m 12,9 km/h (3 Bft) 94,34 %
22.11.2018 13:52 5,7 C 6,1 C 5,6 C 80 % 1016,7 hPa 0,0 l/m 0 min 0 min 121 W/m 16,1 km/h (3 Bft) 93,62 %
22.11.2018 13:54 5,7 C 6,1 C 5,0 C 80 % 1016,7 hPa 0,0 l/m 0 min 0 min 117 W/m 22,5 km/h (4 Bft) 97,96 %
22.11.2018 13:56 5,8 C 6,1 C 5,0 C 80 % 1016,7 hPa 0,0 l/m 0 min 0 min 115 W/m 19,3 km/h (3 Bft) 95,74 %
22.11.2018 13:58 5,8 C 6,1 C 5,0 C 80 % 1016,7 hPa 0,0 l/m 0 min 0 min 114 W/m 12,9 km/h (3 Bft) 94,00 %
22.11.2018 14:00 5,8 C 6,1 C 5,0 C 80 % 1016,7 hPa 0,0 l/m 0 min 0 min 116 W/m 12,9 km/h (3 Bft) 91,49 %
22.11.2018 14:02 5,8 C 6,1 C 5,6 C 80 % 1016,7 hPa 0,0 l/m 0 min 0 min 114 W/m 9,7 km/h (2 Bft) 97,14 %
22.11.2018 14:04 5,8 C 6,1 C 5,6 C 80 % 1016,7 hPa 0,0 l/m 0 min 0 min 113 W/m 16,1 km/h (3 Bft) 90,57 %
22.11.2018 14:06 5,8 C 6,1 C 5,6 C 80 % 1016,7 hPa 0,0 l/m 0 min 0 min 114 W/m 12,9 km/h (3 Bft) 93,62 %
22.11.2018 14:08 5,8 C 6,1 C 5,6 C 80 % 1016,6 hPa 0,0 l/m 0 min 0 min 116 W/m 9,7 km/h (2 Bft) 96,08 %
22.11.2018 14:10 5,8 C 6,1 C 5,6 C 80 % 1016,6 hPa 0,0 l/m 0 min 0 min 115 W/m 9,7 km/h (2 Bft) 93,62 %
22.11.2018 14:12 5,8 C 6,1 C 5,6 C 80 % 1016,7 hPa 0,0 l/m 0 min 0 min 105 W/m 9,7 km/h (2 Bft) 93,62 %
22.11.2018 14:14 5,9 C 6,1 C 5,6 C 80 % 1016,7 hPa 0,0 l/m 0 min 0 min 100 W/m 22,5 km/h (4 Bft) 91,67 %
22.11.2018 14:16 5,9 C 6,1 C 5,6 C 80 % 1016,7 hPa 0,0 l/m 0 min 0 min 104 W/m 16,1 km/h (3 Bft) 94,34 %
22.11.2018 14:18 5,9 C 6,1 C 5,6 C 80 % 1016,7 hPa 0,0 l/m 0 min 0 min 110 W/m 9,7 km/h (2 Bft) 91,84 %
22.11.2018 14:20 5,9 C 6,1 C 5,6 C 80 % 1016,7 hPa 0,0 l/m 0 min 0 min 113 W/m 22,5 km/h (4 Bft) 94,00 %
22.11.2018 14:22 5,9 C 6,1 C 5,6 C 80 % 1016,7 hPa 0,0 l/m 0 min 0 min 110 W/m 19,3 km/h (3 Bft) 91,43 %
22.11.2018 14:24 5,9 C 6,1 C 5,6 C 79 % 1016,6 hPa 0,0 l/m 0 min 0 min 105 W/m 12,9 km/h (3 Bft) 94,34 %
22.11.2018 14:26 5,9 C 5,6 C 5,0 C 79 % 1016,6 hPa 0,0 l/m 0 min 0 min 98 W/m 19,3 km/h (3 Bft) 96,00 %
22.11.2018 14:28 5,9 C 6,1 C 5,0 C 79 % 1016,6 hPa 0,0 l/m 0 min 0 min 95 W/m 16,1 km/h (3 Bft) 95,74 %
22.11.2018 14:30 5,9 C 5,6 C 5,0 C 79 % 1016,5 hPa 0,0 l/m 0 min 0 min 93 W/m 16,1 km/h (3 Bft) 95,74 %
22.11.2018 14:32 5,9 C 5,6 C 5,0 C 79 % 1016,5 hPa 0,0 l/m 0 min 0 min 91 W/m 12,9 km/h (3 Bft) 95,65 %
22.11.2018 14:34 5,9 C 5,6 C 5,0 C 79 % 1016,6 hPa 0,0 l/m 0 min 0 min 90 W/m 12,9 km/h (3 Bft) 90,00 %
22.11.2018 14:36 5,9 C 5,6 C 5,0 C 79 % 1016,6 hPa 0,0 l/m 0 min 0 min 93 W/m 12,9 km/h (3 Bft) 97,83 %
22.11.2018 14:38 5,9 C 6,1 C 5,0 C 79 % 1016,5 hPa 0,0 l/m 0 min 0 min 101 W/m 16,1 km/h (3 Bft) 100,00 %
22.11.2018 14:40 5,9 C 6,1 C 5,0 C 79 % 1016,5 hPa 0,0 l/m 0 min 0 min 103 W/m 16,1 km/h (3 Bft) 100,00 %
22.11.2018 14:42 5,9 C 6,1 C 5,0 C 79 % 1016,6 hPa 0,0 l/m 0 min 0 min 104 W/m 9,7 km/h (2 Bft) 98,11 %
22.11.2018 14:44 5,9 C 6,1 C 5,0 C 79 % 1016,6 hPa 0,0 l/m 0 min 0 min 99 W/m 16,1 km/h (3 Bft) 100,00 %
22.11.2018 14:46 5,9 C 6,1 C 5,0 C 79 % 1016,6 hPa 0,0 l/m 0 min 0 min 95 W/m 12,9 km/h (3 Bft) 98,00 %
22.11.2018 14:48 5,9 C 6,1 C 5,0 C 79 % 1016,6 hPa 0,0 l/m 0 min 0 min 94 W/m 12,9 km/h (3 Bft) 100,00 %
22.11.2018 14:50 5,9 C 6,1 C 5,0 C 79 % 1016,6 hPa 0,0 l/m 0 min 0 min 93 W/m 12,9 km/h (3 Bft) 100,00 %
22.11.2018 14:52 5,9 C 6,1 C 5,0 C 79 % 1016,6 hPa 0,0 l/m 0 min 0 min 95 W/m 9,7 km/h (2 Bft) 100,00 %
22.11.2018 14:54 5,9 C 6,1 C 5,0 C 79 % 1016,6 hPa 0,0 l/m 2 min 0 min 97 W/m 12,9 km/h (3 Bft) 97,96 %
22.11.2018 14:56 5,9 C 6,1 C 5,0 C 79 % 1016,6 hPa 0,0 l/m 2 min 0 min 98 W/m 22,5 km/h (4 Bft) 100,00 %
22.11.2018 14:58 5,9 C 5,6 C 5,0 C 79 % 1016,7 hPa 0,0 l/m 2 min 0 min 99 W/m 22,5 km/h (4 Bft) 100,00 %
22.11.2018 15:00 5,9 C 5,6 C 5,0 C 79 % 1016,7 hPa 0,0 l/m 2 min 0 min 99 W/m 16,1 km/h (3 Bft) 97,87 %
22.11.2018 15:02 5,9 C 6,1 C 5,0 C 79 % 1016,7 hPa 0,0 l/m 2 min 0 min 98 W/m 16,1 km/h (3 Bft) 100,00 %
22.11.2018 15:04 5,9 C 6,1 C 5,0 C 79 % 1016,6 hPa 0,0 l/m 2 min 0 min 98 W/m 22,5 km/h (4 Bft) 97,87 %
22.11.2018 15:06 5,9 C 6,1 C 5,0 C 79 % 1016,7 hPa 0,0 l/m 2 min 0 min 106 W/m 16,1 km/h (3 Bft) 95,65 %
22.11.2018 15:08 5,9 C 6,1 C 5,0 C 79 % 1016,7 hPa 0,0 l/m 2 min 0 min 117 W/m 12,9 km/h (3 Bft) 100,00 %
22.11.2018 15:10 5,9 C 6,1 C 5,6 C 79 % 1016,6 hPa 0,0 l/m 2 min 0 min 124 W/m 9,7 km/h (2 Bft) 100,00 %
22.11.2018 15:12 5,9 C 6,7 C 5,6 C 79 % 1016,7 hPa 0,0 l/m 2 min 0 min 128 W/m 6,4 km/h (2 Bft) 100,00 %
22.11.2018 15:14 5,9 C 6,7 C 5,6 C 79 % 1016,7 hPa 0,0 l/m 2 min 0 min 133 W/m 12,9 km/h (3 Bft) 100,00 %
22.11.2018 15:16 6,0 C 6,7 C 5,6 C 79 % 1016,7 hPa 0,0 l/m 2 min 0 min 132 W/m 16,1 km/h (3 Bft) 100,00 %
22.11.2018 15:18 6,0 C 6,7 C 5,6 C 79 % 1016,7 hPa 0,0 l/m 2 min 0 min 128 W/m 9,7 km/h (2 Bft) 100,00 %
22.11.2018 15:20 6,1 C 6,7 C 5,6 C 79 % 1016,6 hPa 0,0 l/m 2 min 0 min 122 W/m 12,9 km/h (3 Bft) 100,00 %
22.11.2018 15:22 6,1 C 6,7 C 5,6 C 79 % 1016,6 hPa 0,0 l/m 2 min 0 min 118 W/m 16,1 km/h (3 Bft) 100,00 %
22.11.2018 15:24 6,1 C 6,7 C 5,6 C 79 % 1016,6 hPa 0,0 l/m 2 min 0 min 120 W/m 12,9 km/h (3 Bft) 97,87 %
22.11.2018 15:26 6,1 C 6,7 C 5,6 C 79 % 1016,6 hPa 0,0 l/m 2 min 0 min 120 W/m 12,9 km/h (3 Bft) 100,00 %
22.11.2018 15:28 6,2 C 6,7 C 5,6 C 79 % 1016,6 hPa 0,0 l/m 2 min 0 min 118 W/m 9,7 km/h (2 Bft) 100,00 %
22.11.2018 15:30 6,2 C 6,7 C 5,6 C 79 % 1016,6 hPa 0,0 l/m 2 min 0 min 113 W/m 16,1 km/h (3 Bft) 100,00 %
22.11.2018 15:32 6,2 C 6,1 C 5,6 C 79 % 1016,6 hPa 0,0 l/m 2 min 0 min 106 W/m 12,9 km/h (3 Bft) 98,11 %
22.11.2018 15:34 6,2 C 6,1 C 5,6 C 78 % 1016,6 hPa 0,0 l/m 2 min 0 min 101 W/m 16,1 km/h (3 Bft) 100,00 %
22.11.2018 15:36 6,2 C 6,1 C 5,6 C 78 % 1016,6 hPa 0,0 l/m 2 min 0 min 96 W/m 16,1 km/h (3 Bft) 97,87 %
22.11.2018 15:38 6,2 C 6,1 C 5,6 C 78 % 1016,6 hPa 0,0 l/m 2 min 0 min 89 W/m 16,1 km/h (3 Bft) 97,87 %
22.11.2018 15:40 6,2 C 6,1 C 5,6 C 78 % 1016,6 hPa 0,0 l/m 2 min 0 min 84 W/m 12,9 km/h (3 Bft) 100,00 %
22.11.2018 15:42 6,2 C 6,1 C 5,6 C 78 % 1016,6 hPa 0,0 l/m 2 min 0 min 79 W/m 19,3 km/h (3 Bft) 100,00 %
22.11.2018 15:44 6,3 C 6,1 C 5,6 C 78 % 1016,6 hPa 0,0 l/m 2 min 0 min 76 W/m 9,7 km/h (2 Bft) 97,14 %
22.11.2018 15:46 6,2 C 6,1 C 5,6 C 79 % 1016,6 hPa 0,0 l/m 2 min 0 min 72 W/m 9,7 km/h (2 Bft) 100,00 %
22.11.2018 15:48 6,3 C 6,1 C 5,6 C 79 % 1016,5 hPa 0,0 l/m 2 min 0 min 68 W/m 9,7 km/h (2 Bft) 100,00 %
22.11.2018 15:50 6,3 C 6,1 C 5,6 C 79 % 1016,6 hPa 0,0 l/m 2 min 0 min 67 W/m 12,9 km/h (3 Bft) 100,00 %
22.11.2018 15:52 6,3 C 6,1 C 5,0 C 79 % 1016,6 hPa 0,0 l/m 2 min 0 min 64 W/m 12,9 km/h (3 Bft) 100,00 %
22.11.2018 15:54 6,3 C 6,1 C 5,0 C 79 % 1016,6 hPa 0,0 l/m 2 min 0 min 61 W/m 12,9 km/h (3 Bft) 100,00 %
22.11.2018 15:56 6,2 C 6,1 C 5,0 C 79 % 1016,6 hPa 0,0 l/m 2 min 0 min 57 W/m 9,7 km/h (2 Bft) 98,00 %
22.11.2018 15:58 6,2 C 5,6 C 5,0 C 78 % 1016,6 hPa 0,0 l/m 2 min 0 min 54 W/m 16,1 km/h (3 Bft) 100,00 %
22.11.2018 16:00 6,2 C 5,6 C 5,0 C 78 % 1016,6 hPa 0,0 l/m 2 min 0 min 50 W/m 9,7 km/h (2 Bft) 100,00 %
22.11.2018 16:02 6,2 C 5,6 C 5,0 C 79 % 1016,6 hPa 0,0 l/m 2 min 0 min 47 W/m 6,4 km/h (2 Bft) 100,00 %
22.11.2018 16:04 6,2 C 5,6 C 5,0 C 79 % 1016,6 hPa 0,0 l/m 2 min 0 min 45 W/m 9,7 km/h (2 Bft) 100,00 %
22.11.2018 16:06 6,2 C 5,6 C 5,0 C 79 % 1016,5 hPa 0,0 l/m 2 min 0 min 42 W/m 12,9 km/h (3 Bft) 100,00 %
22.11.2018 16:08 6,1 C 5,6 C 5,0 C 79 % 1016,5 hPa 0,0 l/m 2 min 0 min 39 W/m 9,7 km/h (2 Bft) 100,00 %
22.11.2018 16:10 6,1 C 5,6 C 5,0 C 79 % 1016,5 hPa 0,0 l/m 2 min 0 min 34 W/m 6,4 km/h (2 Bft) 97,83 %
22.11.2018 16:12 6,1 C 5,6 C 5,0 C 79 % 1016,6 hPa 0,0 l/m 2 min 0 min 32 W/m 6,4 km/h (2 Bft) 97,87 %
22.11.2018 16:14 6,1 C 5,6 C 4,4 C 79 % 1016,6 hPa 0,0 l/m 2 min 0 min 29 W/m 6,4 km/h (2 Bft) 100,00 %
22.11.2018 16:16 6,1 C 5,6 C 4,4 C 80 % 1016,5 hPa 0,0 l/m 2 min 0 min 27 W/m 9,7 km/h (2 Bft) 100,00 %
22.11.2018 16:18 6,0 C 5,6 C 4,4 C 80 % 1016,5 hPa 0,0 l/m 2 min 0 min 25 W/m 9,7 km/h (2 Bft) 100,00 %
22.11.2018 16:20 6,0 C 5,0 C 4,4 C 80 % 1016,4 hPa 0,0 l/m 2 min 0 min 24 W/m 6,4 km/h (2 Bft) 96,23 %
22.11.2018 16:22 6,0 C 5,0 C 4,4 C 80 % 1016,4 hPa 0,0 l/m 2 min 0 min 22 W/m 6,4 km/h (2 Bft) 97,87 %
22.11.2018 16:24 6,0 C 5,0 C 4,4 C 80 % 1016,4 hPa 0,0 l/m 2 min 0 min 21 W/m 3,2 km/h (1 Bft) 98,00 %
22.11.2018 16:26 5,9 C 5,0 C 4,4 C 80 % 1016,3 hPa 0,0 l/m 0 min 0 min 19 W/m 6,4 km/h (2 Bft) 97,96 %
22.11.2018 16:28 5,9 C 5,0 C 4,4 C 80 % 1016,4 hPa 0,0 l/m 0 min 0 min 19 W/m 3,2 km/h (1 Bft) 97,14 %
22.11.2018 16:30 5,9 C 5,0 C 4,4 C 80 % 1016,4 hPa 0,0 l/m 0 min 0 min 18 W/m 3,2 km/h (1 Bft) 98,11 %
22.11.2018 16:32 5,9 C 5,0 C 4,4 C 80 % 1016,5 hPa 0,0 l/m 0 min 0 min 17 W/m 6,4 km/h (2 Bft) 98,00 %
22.11.2018 16:34 5,8 C 5,0 C 4,4 C 80 % 1016,5 hPa 0,0 l/m 0 min 0 min 16 W/m 6,4 km/h (2 Bft) 95,92 %
22.11.2018 16:36 5,8 C 5,0 C 4,4 C 80 % 1016,5 hPa 0,0 l/m 0 min 0 min 14 W/m 6,4 km/h (2 Bft) 93,62 %
22.11.2018 16:38 5,8 C 5,0 C 4,4 C 81 % 1016,5 hPa 0,0 l/m 0 min 0 min 12 W/m 6,4 km/h (2 Bft) 95,74 %
22.11.2018 16:40 5,7 C 5,0 C 4,4 C 81 % 1016,5 hPa 0,0 l/m 0 min 0 min 10 W/m 3,2 km/h (1 Bft) 95,74 %
22.11.2018 16:42 5,7 C 5,0 C 4,4 C 81 % 1016,5 hPa 0,0 l/m 0 min 0 min 7 W/m 3,2 km/h (1 Bft) 97,14 %
22.11.2018 16:44 5,7 C 4,4 C 4,4 C 81 % 1016,5 hPa 0,0 l/m 0 min 0 min 3 W/m 3,2 km/h (1 Bft) 94,34 %
22.11.2018 16:46 5,7 C 4,4 C 3,9 C 81 % 1016,6 hPa 0,0 l/m 0 min 0 min 0 W/m 6,4 km/h (2 Bft) 94,00 %
22.11.2018 16:48 5,6 C 4,4 C 3,9 C 81 % 1016,6 hPa 0,0 l/m 0 min 0 min 0 W/m 6,4 km/h (2 Bft) 91,84 %
22.11.2018 16:50 5,6 C 4,4 C 3,9 C 81 % 1016,6 hPa 0,0 l/m 0 min 0 min 0 W/m 3,2 km/h (1 Bft) 94,29 %
22.11.2018 16:52 5,6 C 4,4 C 3,9 C 81 % 1016,7 hPa 0,0 l/m 0 min 0 min 0 W/m 3,2 km/h (1 Bft) 92,45 %
22.11.2018 16:54 5,5 C 4,4 C 3,9 C 81 % 1016,7 hPa 0,0 l/m 0 min 0 min 0 W/m 3,2 km/h (1 Bft) 92,00 %
22.11.2018 16:56 5,5 C 4,4 C 3,9 C 81 % 1016,7 hPa 0,0 l/m 0 min 0 min 0 W/m 3,2 km/h (1 Bft) 95,92 %
22.11.2018 16:58 5,4 C 4,4 C 3,9 C 82 % 1016,7 hPa 0,0 l/m 0 min 0 min 0 W/m 3,2 km/h (1 Bft) 94,44 %
22.11.2018 17:00 5,4 C 3,9 C 3,9 C 82 % 1016,7 hPa 0,0 l/m 0 min 0 min 0 W/m 3,2 km/h (1 Bft) 96,30 %
22.11.2018 17:02 5,4 C 3,9 C 3,3 C 82 % 1016,8 hPa 0,0 l/m 0 min 0 min 0 W/m 3,2 km/h (1 Bft) 97,96 %
22.11.2018 17:04 5,4 C 3,9 C 3,3 C 81 % 1016,7 hPa 0,0 l/m 0 min 0 min 0 W/m 3,2 km/h (1 Bft) 95,92 %
22.11.2018 17:06 5,3 C 3,9 C 3,3 C 81 % 1016,8 hPa 0,0 l/m 0 min 0 min 0 W/m 3,2 km/h (1 Bft) 95,74 %
22.11.2018 17:08 5,3 C 3,9 C 3,3 C 81 % 1016,8 hPa 0,0 l/m 0 min 0 min 0 W/m 3,2 km/h (1 Bft) 94,29 %
22.11.2018 17:10 5,3 C 3,3 C 3,3 C 82 % 1016,8 hPa 0,0 l/m 0 min 0 min 0 W/m 3,2 km/h (1 Bft) 97,87 %
22.11.2018 17:12 5,2 C 3,9 C 3,3 C 82 % 1016,8 hPa 0,0 l/m 0 min 0 min 0 W/m 6,4 km/h (2 Bft) 95,65 %
22.11.2018 17:14 5,2 C 3,9 C 3,3 C 82 % 1016,9 hPa 0,0 l/m 0 min 0 min 0 W/m 3,2 km/h (1 Bft) 94,44 %
22.11.2018 17:16 5,1 C 3,9 C 3,3 C 82 % 1016,9 hPa 0,0 l/m 0 min 0 min 0 W/m 6,4 km/h (2 Bft) 92,00 %
22.11.2018 17:18 5,1 C 3,3 C 2,8 C 82 % 1016,9 hPa 0,0 l/m 0 min 0 min 0 W/m 6,4 km/h (2 Bft) 95,92 %
22.11.2018 17:20 5,0 C 3,3 C 2,8 C 82 % 1016,8 hPa 0,0 l/m 0 min 0 min 0 W/m 3,2 km/h (1 Bft) 95,65 %
22.11.2018 17:22 4,9 C 3,9 C 2,8 C 82 % 1016,9 hPa 0,0 l/m 0 min 0 min 0 W/m 6,4 km/h (2 Bft) 97,14 %
22.11.2018 17:24 4,9 C 3,3 C 2,8 C 82 % 1016,9 hPa 0,0 l/m 0 min 0 min 0 W/m 3,2 km/h (1 Bft) 94,55 %
22.11.2018 17:26 4,9 C 3,3 C 2,8 C 82 % 1016,8 hPa 0,0 l/m 0 min 0 min 0 W/m 3,2 km/h (1 Bft) 95,65 %
22.11.2018 17:28 4,8 C 3,3 C 2,8 C 83 % 1016,8 hPa 0,0 l/m 0 min 0 min 0 W/m 3,2 km/h (1 Bft) 96,00 %
22.11.2018 17:30 4,8 C 3,3 C 2,8 C 82 % 1016,8 hPa 0,0 l/m 0 min 0 min 0 W/m 6,4 km/h (2 Bft) 97,87 %
22.11.2018 17:32 4,7 C 3,3 C 2,8 C 83 % 1016,9 hPa 0,0 l/m 0 min 0 min 0 W/m 3,2 km/h (1 Bft) 97,92 %
22.11.2018 17:34 4,7 C 3,3 C 2,8 C 83 % 1016,9 hPa 0,0 l/m 0 min 0 min 0 W/m 3,2 km/h (1 Bft) 97,14 %
22.11.2018 17:36 4,6 C 3,3 C 2,8 C 83 % 1016,9 hPa 0,0 l/m 0 min 0 min 0 W/m 3,2 km/h (1 Bft) 100,00 %
22.11.2018 17:38 4,6 C 2,8 C 2,2 C 83 % 1016,9 hPa 0,0 l/m 0 min 0 min 0 W/m 3,2 km/h (1 Bft) 97,83 %
22.11.2018 17:40 4,5 C 2,8 C 2,2 C 83 % 1016,9 hPa 0,0 l/m 0 min 0 min 0 W/m 3,2 km/h (1 Bft) 97,87 %
22.11.2018 17:42 4,5 C 2,8 C 2,2 C 83 % 1016,9 hPa 0,0 l/m 0 min 0 min 0 W/m 3,2 km/h (1 Bft) 95,74 %
22.11.2018 17:44 4,4 C 2,2 C 2,2 C 83 % 1016,8 hPa 0,0 l/m 0 min 0 min 0 W/m 3,2 km/h (1 Bft) 96,00 %
22.11.2018 17:46 4,4 C 2,2 C 2,2 C 83 % 1016,8 hPa 0,0 l/m 0 min 0 min 0 W/m 3,2 km/h (1 Bft) 95,74 %
22.11.2018 17:48 4,4 C 2,2 C 2,2 C 83 % 1016,8 hPa 0,0 l/m 0 min 0 min 0 W/m 3,2 km/h (1 Bft) 97,92 %
22.11.2018 17:50 4,3 C 2,2 C 2,2 C 83 % 1016,9 hPa 0,0 l/m 0 min 0 min 0 W/m 0,0 km/h (0 Bft) 97,14 %
22.11.2018 17:52 4,3 C 2,2 C 2,2 C 83 % 1016,9 hPa 0,0 l/m 0 min 0 min 0 W/m 0,0 km/h (0 Bft) 98,15 %
22.11.2018 17:54 4,2 C 2,2 C 1,7 C 83 % 1016,9 hPa 0,0 l/m 0 min 0 min 0 W/m 0,0 km/h (0 Bft) 96,00 %
22.11.2018 17:56 4,2 C 2,2 C 1,7 C 83 % 1016,9 hPa 0,0 l/m 0 min 0 min 0 W/m 0,0 km/h (0 Bft) 97,92 %
22.11.2018 17:58 4,2 C 1,7 C 1,7 C 83 % 1016,9 hPa 0,0 l/m 0 min 0 min 0 W/m 0,0 km/h (0 Bft) 97,14 %
22.11.2018 18:00 4,1 C 1,7 C 1,7 C 83 % 1016,9 hPa 0,0 l/m 0 min 0 min 0 W/m 0,0 km/h (0 Bft) 97,87 %
22.11.2018 18:02 4,1 C 1,7 C 1,7 C 83 % 1016,9 hPa 0,0 l/m 0 min 0 min 0 W/m 0,0 km/h (0 Bft) 100,00 %
22.11.2018 18:04 4,0 C 1,1 C 1,7 C 83 % 1016,9 hPa 0,0 l/m 0 min 0 min 0 W/m 0,0 km/h (0 Bft) 100,00 %
22.11.2018 18:08 3,8 C 1,1 C 1,1 C 82 % 1017,0 hPa 0,0 l/m 0 min 0 min 0 W/m 0,0 km/h (0 Bft) 98,95 %
22.11.2018 18:10 3,7 C 1,1 C 1,1 C 83 % 1017,0 hPa 0,0 l/m 0 min 0 min 0 W/m 0,0 km/h (0 Bft) 97,14 %
22.11.2018 18:12 3,7 C 1,1 C 1,1 C 83 % 1017,0 hPa 0,0 l/m 0 min 0 min 0 W/m 0,0 km/h (0 Bft) 98,15 %
22.11.2018 18:14 3,6 C 1,1 C 1,1 C 83 % 1016,9 hPa 0,0 l/m 0 min 0 min 0 W/m 0,0 km/h (0 Bft) 100,00 %
22.11.2018 18:16 3,6 C 1,1 C 1,1 C 83 % 1017,0 hPa 0,0 l/m 0 min 0 min 0 W/m 0,0 km/h (0 Bft) 97,87 %
22.11.2018 18:18 3,5 C 0,6 C 1,1 C 83 % 1016,9 hPa 0,0 l/m 0 min 0 min 0 W/m 0,0 km/h (0 Bft) 97,92 %
22.11.2018 18:20 3,4 C 0,6 C 1,1 C 83 % 1016,9 hPa 0,0 l/m 0 min 0 min 0 W/m 0,0 km/h (0 Bft) 97,14 %
22.11.2018 18:22 3,4 C 0,6 C 1,1 C 83 % 1017,0 hPa 0,0 l/m 0 min 0 min 0 W/m 0,0 km/h (0 Bft) 100,00 %
22.11.2018 18:24 3,3 C 0,6 C 1,1 C 83 % 1017,1 hPa 0,0 l/m 0 min 0 min 0 W/m 0,0 km/h (0 Bft) 95,92 %
22.11.2018 18:26 3,2 C 0,6 C 1,1 C 83 % 1017,0 hPa 0,0 l/m 0 min 0 min 0 W/m 0,0 km/h (0 Bft) 95,74 %
22.11.2018 18:28 3,2 C 0,6 C 1,1 C 83 % 1017,0 hPa 0,0 l/m 0 min 0 min 0 W/m 0,0 km/h (0 Bft) 93,88 %
22.11.2018 18:30 3,1 C 0,6 C 1,1 C 83 % 1017,0 hPa 0,0 l/m 0 min 0 min 0 W/m 0,0 km/h (0 Bft) 97,14 %
22.11.2018 18:32 3,0 C 0,6 C 0,6 C 83 % 1017,0 hPa 0,0 l/m 0 min 0 min 0 W/m 0,0 km/h (0 Bft) 94,44 %
22.11.2018 18:34 2,9 C 0,6 C 0,6 C 83 % 1017,0 hPa 0,0 l/m 0 min 0 min 0 W/m 0,0 km/h (0 Bft) 95,92 %
22.11.2018 18:36 2,9 C 0,6 C 0,6 C 83 % 1017,0 hPa 0,0 l/m 0 min 0 min 0 W/m 0,0 km/h (0 Bft) 95,92 %
22.11.2018 18:38 2,8 C 0,6 C 0,6 C 83 % 1017,0 hPa 0,0 l/m 0 min 0 min 0 W/m 0,0 km/h (0 Bft) 97,87 %
22.11.2018 18:40 2,7 C 0,6 C 0,6 C 83 % 1017,1 hPa 0,0 l/m 0 min 0 min 0 W/m 0,0 km/h (0 Bft) 97,83 %
22.11.2018 18:42 2,7 C 0,6 C 0,6 C 83 % 1017,1 hPa 0,0 l/m 0 min 0 min 0 W/m 0,0 km/h (0 Bft) 97,22 %
22.11.2018 18:44 2,6 C 0,6 C 0,6 C 83 % 1017,1 hPa 0,0 l/m 0 min 0 min 0 W/m 0,0 km/h (0 Bft) 98,15 %
22.11.2018 18:46 2,6 C 0,6 C 0,6 C 83 % 1017,1 hPa 0,0 l/m 0 min 0 min 0 W/m 0,0 km/h (0 Bft) 97,96 %
22.11.2018 18:48 2,5 C 0,6 C 0,6 C 83 % 1017,1 hPa 0,0 l/m 0 min 0 min 0 W/m 0,0 km/h (0 Bft) 95,92 %
22.11.2018 18:50 2,4 C 0,6 C 0,6 C 84 % 1017,0 hPa 0,0 l/m 0 min 0 min 0 W/m 0,0 km/h (0 Bft) 97,87 %
22.11.2018 18:52 2,4 C 1,1 C 0,6 C 84 % 1017,0 hPa 0,0 l/m 0 min 0 min 0 W/m 6,4 km/h (2 Bft) 97,87 %
22.11.2018 18:54 2,3 C 1,1 C 0,6 C 84 % 1017,0 hPa 0,0 l/m 0 min 0 min 0 W/m 3,2 km/h (1 Bft) 97,14 %
22.11.2018 18:56 2,3 C 1,7 C 0,6 C 84 % 1017,1 hPa 0,0 l/m 0 min 0 min 0 W/m 6,4 km/h (2 Bft) 98,15 %
22.11.2018 18:58 2,3 C 1,7 C 0,6 C 85 % 1017,2 hPa 0,0 l/m 0 min 0 min 0 W/m 9,7 km/h (2 Bft) 100,00 %
22.11.2018 19:00 2,3 C 2,2 C 1,1 C 85 % 1017,2 hPa 0,0 l/m 0 min 0 min 0 W/m 6,4 km/h (2 Bft) 100,00 %
22.11.2018 19:02 2,3 C 2,8 C 1,1 C 86 % 1017,1 hPa 0,0 l/m 0 min 0 min 0 W/m 12,9 km/h (3 Bft) 100,00 %
22.11.2018 19:04 2,3 C 2,8 C 1,7 C 86 % 1017,1 hPa 0,0 l/m 0 min 0 min 0 W/m 9,7 km/h (2 Bft) 100,00 %
22.11.2018 19:06 2,4 C 2,8 C 1,7 C 87 % 1017,1 hPa 0,0 l/m 0 min 0 min 0 W/m 9,7 km/h (2 Bft) 100,00 %
22.11.2018 19:08 2,4 C 2,8 C 1,7 C 87 % 1017,1 hPa 0,0 l/m 0 min 0 min 0 W/m 9,7 km/h (2 Bft) 100,00 %
22.11.2018 19:10 2,6 C 3,3 C 2,2 C 88 % 1017,0 hPa 0,0 l/m 0 min 0 min 0 W/m 12,9 km/h (3 Bft) 100,00 %
22.11.2018 19:12 2,6 C 3,3 C 2,2 C 88 % 1017,1 hPa 0,0 l/m 0 min 0 min 0 W/m 9,7 km/h (2 Bft) 100,00 %
22.11.2018 19:14 2,6 C 2,8 C 1,7 C 88 % 1017,2 hPa 0,0 l/m 0 min 0 min 0 W/m 3,2 km/h (1 Bft) 100,00 %
22.11.2018 19:16 2,7 C 2,8 C 1,7 C 89 % 1017,2 hPa 0,0 l/m 0 min 0 min 0 W/m 3,2 km/h (1 Bft) 100,00 %
22.11.2018 19:18 2,7 C 2,8 C 1,7 C 89 % 1017,1 hPa 0,0 l/m 0 min 0 min 0 W/m 3,2 km/h (1 Bft) 100,00 %
22.11.2018 19:20 2,7 C 2,2 C 1,7 C 89 % 1017,1 hPa 0,0 l/m 0 min 0 min 0 W/m 3,2 km/h (1 Bft) 100,00 %
22.11.2018 19:22 2,7 C 2,2 C 1,7 C 89 % 1017,1 hPa 0,0 l/m 0 min 0 min 0 W/m 6,4 km/h (2 Bft) 100,00 %
22.11.2018 19:24 2,7 C 2,2 C 1,7 C 89 % 1017,2 hPa 0,0 l/m 0 min 0 min 0 W/m 3,2 km/h (1 Bft) 100,00 %
22.11.2018 19:26 2,7 C 2,2 C 1,1 C 89 % 1017,1 hPa 0,0 l/m 0 min 0 min 0 W/m 3,2 km/h (1 Bft) 100,00 %
22.11.2018 19:28 2,7 C 2,8 C 1,7 C 89 % 1017,2 hPa 0,0 l/m 0 min 0 min 0 W/m 12,9 km/h (3 Bft) 100,00 %
22.11.2018 19:30 2,7 C 2,8 C 1,7 C 89 % 1017,2 hPa 0,0 l/m 0 min 0 min 0 W/m 12,9 km/h (3 Bft) 94,29 %
22.11.2018 19:32 2,8 C 2,8 C 1,7 C 89 % 1017,2 hPa 0,0 l/m 0 min 0 min 0 W/m 12,9 km/h (3 Bft) 100,00 %
22.11.2018 19:34 2,8 C 2,8 C 2,2 C 89 % 1017,2 hPa 0,0 l/m 0 min 0 min 0 W/m 9,7 km/h (2 Bft) 100,00 %
22.11.2018 19:36 2,8 C 2,8 C 2,2 C 89 % 1017,2 hPa 0,0 l/m 0 min 0 min 0 W/m 16,1 km/h (3 Bft) 100,00 %
22.11.2018 19:38 2,9 C 2,8 C 2,2 C 89 % 1017,2 hPa 0,0 l/m 0 min 0 min 0 W/m 9,7 km/h (2 Bft) 100,00 %
22.11.2018 19:40 2,9 C 2,8 C 2,2 C 89 % 1017,1 hPa 0,0 l/m 0 min 0 min 0 W/m 9,7 km/h (2 Bft) 100,00 %
22.11.2018 19:42 2,9 C 2,8 C 2,2 C 89 % 1017,1 hPa 0,0 l/m 0 min 0 min 0 W/m 16,1 km/h (3 Bft) 97,14 %
22.11.2018 19:44 3,0 C 2,8 C 2,2 C 89 % 1017,1 hPa 0,0 l/m 0 min 0 min 0 W/m 12,9 km/h (3 Bft) 98,18 %
22.11.2018 19:46 3,0 C 2,8 C 2,2 C 89 % 1017,1 hPa 0,0 l/m 0 min 0 min 0 W/m 16,1 km/h (3 Bft) 100,00 %
22.11.2018 19:48 3,1 C 3,3 C 2,2 C 89 % 1017,2 hPa 0,0 l/m 0 min 0 min 0 W/m 12,9 km/h (3 Bft) 100,00 %
22.11.2018 19:50 3,1 C 2,8 C 2,2 C 89 % 1017,1 hPa 0,0 l/m 0 min 0 min 0 W/m 12,9 km/h (3 Bft) 97,87 %
22.11.2018 19:52 3,2 C 2,8 C 2,2 C 88 % 1017,1 hPa 0,0 l/m 0 min 0 min 0 W/m 12,9 km/h (3 Bft) 97,92 %
22.11.2018 19:54 3,2 C 3,3 C 2,2 C 88 % 1017,1 hPa 0,0 l/m 0 min 0 min 0 W/m 16,1 km/h (3 Bft) 94,29 %
22.11.2018 19:56 3,2 C 2,8 C 2,2 C 88 % 1017,1 hPa 0,0 l/m 0 min 0 min 0 W/m 12,9 km/h (3 Bft) 98,18 %
22.11.2018 19:58 3,2 C 2,8 C 2,2 C 88 % 1017,1 hPa 0,0 l/m 0 min 0 min 0 W/m 9,7 km/h (2 Bft) 97,83 %
22.11.2018 20:00 3,2 C 2,8 C 2,2 C 88 % 1017,1 hPa 0,0 l/m 0 min 0 min 0 W/m 12,9 km/h (3 Bft) 98,00 %
22.11.2018 20:02 3,3 C 2,8 C 2,2 C 88 % 1017,1 hPa 0,0 l/m 0 min 0 min 0 W/m 12,9 km/h (3 Bft) 97,96 %
22.11.2018 20:04 3,3 C 2,8 C 2,2 C 88 % 1017,2 hPa 0,0 l/m 0 min 0 min 0 W/m 12,9 km/h (3 Bft) 97,14 %
22.11.2018 20:06 3,3 C 2,8 C 2,2 C 88 % 1017,2 hPa 0,0 l/m 0 min 0 min 0 W/m 12,9 km/h (3 Bft) 96,30 %
22.11.2018 20:08 3,3 C 2,8 C 2,2 C 88 % 1017,2 hPa 0,0 l/m 0 min 0 min 0 W/m 12,9 km/h (3 Bft) 97,83 %
22.11.2018 20:10 3,3 C 2,8 C 2,2 C 87 % 1017,2 hPa 0,0 l/m 0 min 0 min 0 W/m 12,9 km/h (3 Bft) 97,87 %
22.11.2018 20:12 3,3 C 2,8 C 2,2 C 87 % 1017,2 hPa 0,0 l/m 0 min 0 min 0 W/m 19,3 km/h (3 Bft) 97,87 %
22.11.2018 20:14 3,3 C 2,8 C 2,2 C 87 % 1017,2 hPa 0,0 l/m 0 min 0 min 0 W/m 12,9 km/h (3 Bft) 98,00 %
22.11.2018 20:16 3,3 C 2,8 C 2,2 C 87 % 1017,2 hPa 0,0 l/m 0 min 0 min 0 W/m 12,9 km/h (3 Bft) 97,87 %
22.11.2018 20:18 3,3 C 2,8 C 2,2 C 87 % 1017,2 hPa 0,0 l/m 0 min 0 min 0 W/m 12,9 km/h (3 Bft) 97,92 %
22.11.2018 20:20 3,3 C 2,8 C 2,2 C 87 % 1017,3 hPa 0,0 l/m 0 min 0 min 0 W/m 9,7 km/h (2 Bft) 95,74 %
22.11.2018 20:22 3,3 C 2,8 C 2,2 C 87 % 1017,3 hPa 0,0 l/m 0 min 0 min 0 W/m 19,3 km/h (3 Bft) 95,74 %
22.11.2018 20:24 3,3 C 2,8 C 2,2 C 87 % 1017,3 hPa 0,0 l/m 0 min 0 min 0 W/m 9,7 km/h (2 Bft) 100,00 %
22.11.2018 20:26 3,3 C 2,8 C 2,2 C 87 % 1017,3 hPa 0,0 l/m 0 min 0 min 0 W/m 19,3 km/h (3 Bft) 92,59 %
22.11.2018 20:28 3,3 C 2,8 C 2,2 C 87 % 1017,2 hPa 0,0 l/m 0 min 0 min 0 W/m 9,7 km/h (2 Bft) 96,00 %
22.11.2018 20:30 3,3 C 2,8 C 2,2 C 87 % 1017,2 hPa 0,0 l/m 0 min 0 min 0 W/m 12,9 km/h (3 Bft) 97,92 %
22.11.2018 20:32 3,3 C 2,8 C 2,2 C 87 % 1017,2 hPa 0,0 l/m 0 min 0 min 0 W/m 9,7 km/h (2 Bft) 91,43 %
22.11.2018 20:34 3,3 C 2,8 C 2,2 C 87 % 1017,3 hPa 0,0 l/m 0 min 0 min 0 W/m 12,9 km/h (3 Bft) 96,43 %
22.11.2018 20:36 3,3 C 2,8 C 1,7 C 87 % 1017,2 hPa 0,0 l/m 0 min 0 min 0 W/m 12,9 km/h (3 Bft) 96,00 %
22.11.2018 20:38 3,3 C 2,8 C 2,2 C 87 % 1017,3 hPa 0,0 l/m 0 min 0 min 0 W/m 12,9 km/h (3 Bft) 93,48 %
22.11.2018 20:40 3,3 C 2,8 C 2,2 C 87 % 1017,3 hPa 0,0 l/m 0 min 0 min 0 W/m 16,1 km/h (3 Bft) 93,62 %
22.11.2018 20:42 3,2 C 2,8 C 2,2 C 87 % 1017,3 hPa 0,0 l/m 0 min 0 min 0 W/m 22,5 km/h (4 Bft) 97,14 %
22.11.2018 20:44 3,2 C 2,8 C 2,2 C 87 % 1017,3 hPa 0,0 l/m 0 min 0 min 0 W/m 22,5 km/h (4 Bft) 94,34 %
22.11.2018 20:46 3,2 C 2,8 C 2,2 C 87 % 1017,2 hPa 0,0 l/m 0 min 0 min 0 W/m 16,1 km/h (3 Bft) 97,87 %
22.11.2018 20:48 3,2 C 2,8 C 2,2 C 87 % 1017,3 hPa 0,0 l/m 0 min 0 min 0 W/m 9,7 km/h (2 Bft) 96,00 %
22.11.2018 20:50 3,2 C 2,8 C 2,2 C 87 % 1017,3 hPa 0,0 l/m 0 min 0 min 0 W/m 16,1 km/h (3 Bft) 97,87 %
22.11.2018 20:52 3,2 C 2,8 C 2,2 C 87 % 1017,2 hPa 0,0 l/m 0 min 0 min 0 W/m 12,9 km/h (3 Bft) 95,92 %
22.11.2018 20:54 3,2 C 2,8 C 1,7 C 87 % 1017,3 hPa 0,0 l/m 0 min 0 min 0 W/m 12,9 km/h (3 Bft) 94,29 %
22.11.2018 20:56 3,2 C 2,8 C 2,2 C 87 % 1017,3 hPa 0,0 l/m 0 min 0 min 0 W/m 19,3 km/h (3 Bft) 97,87 %
22.11.2018 20:58 3,2 C 2,8 C 2,2 C 87 % 1017,3 hPa 0,0 l/m 0 min 0 min 0 W/m 12,9 km/h (3 Bft) 98,11 %
22.11.2018 21:00 3,2 C 2,8 C 1,7 C 87 % 1017,3 hPa 0,0 l/m 0 min 0 min 0 W/m 12,9 km/h (3 Bft) 98,00 %
22.11.2018 21:02 3,1 C 2,8 C 1,7 C 87 % 1017,3 hPa 0,0 l/m 0 min 0 min 0 W/m 16,1 km/h (3 Bft) 95,92 %
22.11.2018 21:04 3,1 C 2,8 C 1,7 C 87 % 1017,3 hPa 0,0 l/m 0 min 0 min 0 W/m 19,3 km/h (3 Bft) 91,43 %
22.11.2018 21:06 3,1 C 2,2 C 1,7 C 87 % 1017,3 hPa 0,0 l/m 0 min 0 min 0 W/m 19,3 km/h (3 Bft) 98,15 %
22.11.2018 21:08 3,1 C 2,2 C 1,7 C 87 % 1017,3 hPa 0,0 l/m 0 min 0 min 0 W/m 12,9 km/h (3 Bft) 97,96 %
22.11.2018 21:10 3,1 C 2,2 C 1,7 C 87 % 1017,3 hPa 0,0 l/m 0 min 0 min 0 W/m 12,9 km/h (3 Bft) 97,87 %
22.11.2018 21:12 3,1 C 2,2 C 1,7 C 87 % 1017,3 hPa 0,0 l/m 0 min 0 min 0 W/m 12,9 km/h (3 Bft) 93,88 %
22.11.2018 21:14 3,1 C 2,2 C 1,7 C 87 % 1017,3 hPa 0,0 l/m 0 min 0 min 0 W/m 16,1 km/h (3 Bft) 95,74 %
22.11.2018 21:16 3,0 C 2,2 C 1,7 C 87 % 1017,3 hPa 0,0 l/m 0 min 0 min 0 W/m 12,9 km/h (3 Bft) 94,29 %
22.11.2018 21:18 3,0 C 2,2 C 1,7 C 87 % 1017,3 hPa 0,0 l/m 0 min 0 min 0 W/m 12,9 km/h (3 Bft) 95,74 %
22.11.2018 21:20 3,0 C 2,2 C 1,7 C 87 % 1017,3 hPa 0,0 l/m 0 min 0 min 0 W/m 16,1 km/h (3 Bft) 94,34 %
22.11.2018 21:22 3,0 C 2,2 C 1,7 C 87 % 1017,3 hPa 0,0 l/m 0 min 0 min 0 W/m 25,7 km/h (4 Bft) 95,74 %
22.11.2018 21:24 2,9 C 2,2 C 1,7 C 87 % 1017,3 hPa 0,0 l/m 0 min 0 min 0 W/m 9,7 km/h (2 Bft) 98,00 %
22.11.2018 21:26 2,9 C 2,2 C 1,7 C 87 % 1017,3 hPa 0,0 l/m 0 min 0 min 0 W/m 16,1 km/h (3 Bft) 97,87 %
22.11.2018 21:28 2,9 C 2,2 C 1,7 C 87 % 1017,3 hPa 0,0 l/m 0 min 0 min 0 W/m 12,9 km/h (3 Bft) 97,96 %
22.11.2018 21:30 2,9 C 2,2 C 1,7 C 87 % 1017,4 hPa 0,0 l/m 0 min 0 min 0 W/m 12,9 km/h (3 Bft) 97,14 %
22.11.2018 21:32 2,9 C 2,2 C 1,7 C 87 % 1017,4 hPa 0,0 l/m 0 min 0 min 0 W/m 12,9 km/h (3 Bft) 98,11 %
22.11.2018 21:34 2,9 C 2,2 C 1,7 C 88 % 1017,3 hPa 0,0 l/m 0 min 0 min 0 W/m 16,1 km/h (3 Bft) 96,00 %
22.11.2018 21:36 2,9 C 2,2 C 1,7 C 88 % 1017,3 hPa 0,0 l/m 0 min 0 min 0 W/m 16,1 km/h (3 Bft) 97,96 %
22.11.2018 21:38 2,9 C 2,2 C 1,7 C 88 % 1017,3 hPa 0,0 l/m 0 min 0 min 0 W/m 16,1 km/h (3 Bft) 95,74 %
22.11.2018 21:40 2,9 C 2,2 C 1,7 C 88 % 1017,3 hPa 0,0 l/m 0 min 0 min 0 W/m 19,3 km/h (3 Bft) 97,87 %
22.11.2018 21:42 2,8 C 2,2 C 1,7 C 88 % 1017,3 hPa 0,0 l/m 0 min 0 min 0 W/m 16,1 km/h (3 Bft) 100,00 %
22.11.2018 21:44 2,8 C 2,2 C 1,7 C 88 % 1017,3 hPa 0,0 l/m 0 min 0 min 0 W/m 16,1 km/h (3 Bft) 96,23 %
22.11.2018 21:46 2,8 C 2,2 C 1,7 C 88 % 1017,3 hPa 0,0 l/m 0 min 0 min 0 W/m 22,5 km/h (4 Bft) 98,00 %
22.11.2018 21:48 2,8 C 2,2 C 1,7 C 88 % 1017,3 hPa 0,0 l/m 0 min 0 min 0 W/m 6,4 km/h (2 Bft) 95,92 %
22.11.2018 21:50 2,8 C 2,2 C 1,7 C 88 % 1017,3 hPa 0,0 l/m 0 min 0 min 0 W/m 9,7 km/h (2 Bft) 97,87 %
22.11.2018 21:52 2,8 C 2,2 C 1,7 C 88 % 1017,3 hPa 0,0 l/m 0 min 0 min 0 W/m 19,3 km/h (3 Bft) 97,14 %
22.11.2018 21:54 2,8 C 2,2 C 1,7 C 88 % 1017,3 hPa 0,0 l/m 0 min 0 min 0 W/m 9,7 km/h (2 Bft) 98,11 %
22.11.2018 21:56 2,8 C 2,2 C 1,7 C 88 % 1017,4 hPa 0,0 l/m 0 min 0 min 0 W/m 9,7 km/h (2 Bft) 97,87 %
22.11.2018 21:58 2,8 C 2,2 C 1,7 C 88 % 1017,4 hPa 0,0 l/m 0 min 0 min 0 W/m 19,3 km/h (3 Bft) 94,00 %
22.11.2018 22:00 2,8 C 2,2 C 1,7 C 88 % 1017,4 hPa 0,0 l/m 0 min 0 min 0 W/m 16,1 km/h (3 Bft) 97,96 %
22.11.2018 22:02 2,8 C 2,2 C 1,7 C 88 % 1017,4 hPa 0,0 l/m 0 min 0 min 0 W/m 16,1 km/h (3 Bft) 97,14 %
22.11.2018 22:04 2,8 C 2,2 C 1,7 C 88 % 1017,5 hPa 0,0 l/m 0 min 0 min 0 W/m 16,1 km/h (3 Bft) 98,15 %
22.11.2018 22:06 2,7 C 2,2 C 1,7 C 88 % 1017,5 hPa 0,0 l/m 0 min 0 min 0 W/m 16,1 km/h (3 Bft) 97,96 %
22.11.2018 22:08 2,7 C 2,2 C 1,7 C 88 % 1017,4 hPa 0,0 l/m 0 min 0 min 0 W/m 9,7 km/h (2 Bft) 95,74 %
22.11.2018 22:10 2,7 C 2,2 C 1,7 C 88 % 1017,4 hPa 0,0 l/m 0 min 0 min 0 W/m 16,1 km/h (3 Bft) 95,74 %
22.11.2018 22:12 2,7 C 2,2 C 1,7 C 88 % 1017,4 hPa 0,0 l/m 0 min 0 min 0 W/m 12,9 km/h (3 Bft) 97,96 %
22.11.2018 22:14 2,7 C 2,2 C 1,7 C 88 % 1017,4 hPa 0,0 l/m 0 min 0 min 0 W/m 9,7 km/h (2 Bft) 97,14 %
22.11.2018 22:16 2,7 C 1,7 C 1,7 C 88 % 1017,4 hPa 0,0 l/m 0 min 0 min 0 W/m 16,1 km/h (3 Bft) 98,15 %
22.11.2018 22:18 2,7 C 1,7 C 1,1 C 88 % 1017,4 hPa 0,0 l/m 0 min 0 min 0 W/m 9,7 km/h (2 Bft) 97,96 %
22.11.2018 22:20 2,6 C 1,7 C 1,1 C 88 % 1017,4 hPa 0,0 l/m 0 min 0 min 0 W/m 9,7 km/h (2 Bft) 98,00 %
22.11.2018 22:22 2,6 C 1,7 C 1,1 C 88 % 1017,4 hPa 0,0 l/m 0 min 0 min 0 W/m 9,7 km/h (2 Bft) 100,00 %
22.11.2018 22:24 2,6 C 1,7 C 1,1 C 88 % 1017,3 hPa 0,0 l/m 0 min 0 min 0 W/m 16,1 km/h (3 Bft) 100,00 %
22.11.2018 22:26 2,6 C 1,7 C 1,1 C 89 % 1017,3 hPa 0,0 l/m 0 min 0 min 0 W/m 9,7 km/h (2 Bft) 100,00 %
22.11.2018 22:28 2,6 C 1,7 C 1,1 C 89 % 1017,3 hPa 0,0 l/m 0 min 0 min 0 W/m 12,9 km/h (3 Bft) 97,96 %
22.11.2018 22:30 2,6 C 1,7 C 1,1 C 89 % 1017,3 hPa 0,0 l/m 0 min 0 min 0 W/m 12,9 km/h (3 Bft) 100,00 %
22.11.2018 22:32 2,5 C 1,7 C 1,1 C 89 % 1017,3 hPa 0,0 l/m 0 min 0 min 0 W/m 9,7 km/h (2 Bft) 100,00 %
22.11.2018 22:34 2,5 C 1,7 C 1,1 C 89 % 1017,3 hPa 0,0 l/m 0 min 0 min 0 W/m 22,5 km/h (4 Bft) 100,00 %
22.11.2018 22:36 2,5 C 1,7 C 1,1 C 89 % 1017,3 hPa 0,0 l/m 0 min 0 min 0 W/m 12,9 km/h (3 Bft) 100,00 %
22.11.2018 22:38 2,4 C 1,7 C 1,1 C 89 % 1017,3 hPa 0,0 l/m 0 min 0 min 0 W/m 9,7 km/h (2 Bft) 97,14 %
22.11.2018 22:40 2,4 C 1,7 C 1,1 C 89 % 1017,3 hPa 0,0 l/m 0 min 0 min 0 W/m 16,1 km/h (3 Bft) 97,87 %
22.11.2018 22:42 2,4 C 1,7 C 1,1 C 89 % 1017,3 hPa 0,0 l/m 0 min 0 min 0 W/m 12,9 km/h (3 Bft) 100,00 %
22.11.2018 22:44 2,4 C 1,7 C 1,1 C 89 % 1017,3 hPa 0,0 l/m 0 min 0 min 0 W/m 19,3 km/h (3 Bft) 100,00 %
22.11.2018 22:46 2,4 C 1,7 C 1,1 C 89 % 1017,2 hPa 0,0 l/m 0 min 0 min 0 W/m 6,4 km/h (2 Bft) 98,00 %
22.11.2018 22:48 2,4 C 1,7 C 1,1 C 89 % 1017,2 hPa 0,0 l/m 0 min 0 min 0 W/m 12,9 km/h (3 Bft) 100,00 %
22.11.2018 22:50 2,4 C 1,7 C 1,1 C 89 % 1017,2 hPa 0,0 l/m 0 min 0 min 0 W/m 12,9 km/h (3 Bft) 100,00 %
22.11.2018 22:52 2,4 C 1,7 C 1,1 C 89 % 1017,2 hPa 0,0 l/m 0 min 0 min 0 W/m 12,9 km/h (3 Bft) 98,11 %
22.11.2018 22:54 2,4 C 1,7 C 1,1 C 89 % 1017,3 hPa 0,0 l/m 0 min 0 min 0 W/m 9,7 km/h (2 Bft) 98,00 %
22.11.2018 22:56 2,4 C 1,7 C 1,1 C 89 % 1017,2 hPa 0,0 l/m 0 min 0 min 0 W/m 12,9 km/h (3 Bft) 95,74 %
22.11.2018 22:58 2,4 C 1,7 C 1,1 C 89 % 1017,2 hPa 0,0 l/m 0 min 0 min 0 W/m 16,1 km/h (3 Bft) 95,92 %
22.11.2018 23:00 2,4 C 1,7 C 1,1 C 89 % 1017,3 hPa 0,0 l/m 0 min 0 min 0 W/m 9,7 km/h (2 Bft) 100,00 %
22.11.2018 23:02 2,3 C 1,7 C 1,1 C 89 % 1017,3 hPa 0,0 l/m 0 min 0 min 0 W/m 16,1 km/h (3 Bft) 90,74 %
22.11.2018 23:04 2,3 C 1,7 C 1,1 C 89 % 1017,3 hPa 0,0 l/m 0 min 0 min 0 W/m 19,3 km/h (3 Bft) 93,88 %
22.11.2018 23:06 2,3 C 1,7 C 1,1 C 89 % 1017,3 hPa 0,0 l/m 0 min 0 min 0 W/m 12,9 km/h (3 Bft) 94,00 %
22.11.2018 23:08 2,3 C 1,7 C 1,1 C 89 % 1017,3 hPa 0,0 l/m 0 min 0 min 0 W/m 9,7 km/h (2 Bft) 97,83 %
22.11.2018 23:10 2,3 C 1,7 C 1,1 C 89 % 1017,2 hPa 0,0 l/m 0 min 0 min 0 W/m 12,9 km/h (3 Bft) 97,87 %
22.11.2018 23:12 2,3 C 1,7 C 1,1 C 90 % 1017,3 hPa 0,0 l/m 0 min 0 min 0 W/m 16,1 km/h (3 Bft) 94,29 %
22.11.2018 23:14 2,3 C 1,7 C 1,1 C 90 % 1017,3 hPa 0,0 l/m 0 min 0 min 0 W/m 12,9 km/h (3 Bft) 96,30 %
22.11.2018 23:16 2,3 C 1,7 C 1,1 C 90 % 1017,3 hPa 0,0 l/m 0 min 0 min 0 W/m 12,9 km/h (3 Bft) 93,88 %
22.11.2018 23:18 2,3 C 1,7 C 1,1 C 90 % 1017,3 hPa 0,0 l/m 0 min 0 min 0 W/m 12,9 km/h (3 Bft) 96,00 %
22.11.2018 23:20 2,3 C 1,7 C 1,1 C 90 % 1017,3 hPa 0,0 l/m 0 min 0 min 0 W/m 9,7 km/h (2 Bft) 94,29 %
22.11.2018 23:22 2,3 C 1,7 C 1,1 C 90 % 1017,3 hPa 0,0 l/m 0 min 0 min 0 W/m 12,9 km/h (3 Bft) 96,23 %
22.11.2018 23:24 2,3 C 1,7 C 1,1 C 90 % 1017,3 hPa 0,0 l/m 0 min 0 min 0 W/m 9,7 km/h (2 Bft) 96,00 %
22.11.2018 23:26 2,3 C 1,7 C 1,1 C 90 % 1017,3 hPa 0,0 l/m 0 min 0 min 0 W/m 12,9 km/h (3 Bft) 95,92 %
22.11.2018 23:28 2,2 C 1,7 C 1,1 C 90 % 1017,3 hPa 0,0 l/m 0 min 0 min 0 W/m 12,9 km/h (3 Bft) 94,29 %
22.11.2018 23:30 2,2 C 1,7 C 1,1 C 90 % 1017,3 hPa 0,0 l/m 0 min 0 min 0 W/m 9,7 km/h (2 Bft) 96,23 %
22.11.2018 23:32 2,2 C 1,7 C 1,1 C 90 % 1017,3 hPa 0,0 l/m 0 min 0 min 0 W/m 12,9 km/h (3 Bft) 96,00 %
22.11.2018 23:34 2,2 C 1,7 C 1,1 C 90 % 1017,3 hPa 0,0 l/m 0 min 0 min 0 W/m 12,9 km/h (3 Bft) 91,49 %
22.11.2018 23:36 2,2 C 1,7 C 1,1 C 90 % 1017,3 hPa 0,0 l/m 0 min 0 min 0 W/m 12,9 km/h (3 Bft) 95,92 %
22.11.2018 23:38 2,2 C 1,1 C 1,1 C 90 % 1017,3 hPa 0,0 l/m 0 min 0 min 0 W/m 9,7 km/h (2 Bft) 97,87 %
22.11.2018 23:40 2,2 C 1,1 C 1,1 C 90 % 1017,3 hPa 0,0 l/m 0 min 0 min 0 W/m 9,7 km/h (2 Bft) 97,87 %
22.11.2018 23:42 2,1 C 1,1 C 1,1 C 90 % 1017,3 hPa 0,0 l/m 0 min 0 min 0 W/m 22,5 km/h (4 Bft) 97,14 %
22.11.2018 23:44 2,1 C 1,1 C 1,1 C 90 % 1017,3 hPa 0,0 l/m 0 min 0 min 0 W/m 9,7 km/h (2 Bft) 98,11 %
22.11.2018 23:46 2,1 C 1,1 C 1,1 C 90 % 1017,3 hPa 0,0 l/m 0 min 0 min 0 W/m 12,9 km/h (3 Bft) 98,00 %
22.11.2018 23:48 2,1 C 1,1 C 1,1 C 90 % 1017,3 hPa 0,0 l/m 0 min 0 min 0 W/m 12,9 km/h (3 Bft) 97,96 %
22.11.2018 23:50 2,1 C 1,1 C 1,1 C 90 % 1017,3 hPa 0,0 l/m 0 min 0 min 0 W/m 29,0 km/h (5 Bft) 97,14 %
22.11.2018 23:52 2,0 C 1,1 C 1,1 C 90 % 1017,3 hPa 0,0 l/m 0 min 0 min 0 W/m 9,7 km/h (2 Bft) 98,11 %
22.11.2018 23:54 2,0 C 1,1 C 1,1 C 90 % 1017,4 hPa 0,0 l/m 0 min 0 min 0 W/m 16,1 km/h (3 Bft) 97,87 %
22.11.2018 23:56 2,0 C 1,1 C 1,1 C 90 % 1017,3 hPa 0,0 l/m 0 min 0 min 0 W/m 16,1 km/h (3 Bft) 98,00 %
22.11.2018 23:58 2,0 C 1,1 C 1,1 C 90 % 1017,4 hPa 0,0 l/m 0 min 0 min 0 W/m 12,9 km/h (3 Bft) 97,96 %
_ Min-Zeit 23:52 18:18 18:32 15:34 16:26 - - - - 01:36 08:32
Minimum _ 2,0 C 0,6 C 0,6 C 78 % 1016,3 hPa - - - - 0,0 km/h (0 Bft) 84,00 %
_ Max-Zeit 15:44 15:12 13:52 06:08 11:54 00:00 09:42 00:00 10:12 12:30 01:26
Maximum _ 6,3 C 6,7 C 5,6 C 91 % 1017,5 hPa 0,0 l/m 2 min 0 min 178 W/m 35,4 km/h
O (5 Bft)
100,00 %
Durchschnitt _ 3,9 C 3,5 C 3,1 C 86 % 1017,1 hPa #0,0 l/m #2:16 h #0 min. 85 W/m 10,1 km/h (2 Bft) 97,31 %
© 2018 W. Hausmann